GFSSE_sfc_wetblb_000.txt.gz
Wetbulb
60.67 64.15 67.81 68.91 69.89 70.35 71.09 71.81 71.77 71.68 71.64 71.75 71.88 71.79 71.90 72.16 72.19 72.14 72.41 72.32 71.85 71.83 72.20 72.27 72.47 72.56 72.63 72.25 72.11 71.96 71.94 71.97 71.94 71.59 71.19 70.31 72.31 73.94 73.94 74.19 73.76 73.14 74.40
60.77 63.90 67.07 67.51 68.14 68.90 69.74 70.22 70.93 71.11 71.23 71.36 71.09 70.72 70.84 70.99 70.78 70.43 70.20 70.97 71.44 71.59 71.75 71.79 72.00 72.35 72.32 72.00 72.03 72.46 72.16 72.98 72.76 72.37 72.12 71.35 70.93 74.26 74.28 74.31 73.94 73.63 74.20
60.05 63.79 63.75 65.83 66.78 67.27 67.70 68.49 68.65 69.15 69.59 69.95 70.57 70.18 69.79 69.88 70.09 70.02 69.63 69.50 69.88 70.55 71.03 71.29 71.49 71.32 71.20 71.58 71.56 71.67 71.77 72.40 72.41 72.16 71.70 70.14 66.46 73.65 74.40 74.37 74.20 74.09 73.79
59.62 61.15 61.51 64.59 64.56 65.60 66.63 66.44 66.75 67.56 67.39 68.30 68.27 68.52 67.52 66.38 66.64 67.26 67.52 67.12 67.51 68.01 68.58 69.08 69.14 68.51 68.70 69.51 70.57 71.02 71.00 71.23 71.66 70.76 68.71 69.39 66.59 72.14 73.86 73.98 74.16 74.20 74.39
57.99 59.51 60.83 63.35 63.09 63.86 64.03 63.80 64.16 65.40 65.05 65.78 66.47 65.06 64.27 65.11 65.18 64.98 64.68 64.30 64.55 65.16 66.11 66.95 66.87 66.20 65.96 66.87 68.30 69.26 70.05 70.70 70.84 68.69 66.84 67.02 68.57 70.72 72.35 72.57 73.42 73.66 72.60
56.80 57.86 60.15 61.64 61.56 61.65 61.56 61.39 61.37 62.00 62.01 63.34 62.06 61.17 60.50 61.01 60.64 60.68 60.52 60.38 60.48 60.99 61.92 64.04 63.78 63.27 63.23 63.78 65.12 66.09 66.48 66.39 67.62 67.07 65.34 66.64 68.31 72.08 71.53 71.74 72.35 72.60 72.39
54.68 55.21 56.13 59.56 59.84 59.89 59.72 59.79 59.42 58.90 58.97 59.56 58.92 58.03 57.40 57.40 57.32 57.44 57.57 57.84 58.05 58.13 58.48 59.58 59.03 58.89 59.20 60.28 61.50 62.23 62.17 61.83 62.30 65.23 66.14 65.37 66.10 71.61 70.92 71.54 71.74 71.78 72.37
53.32 54.09 54.01 56.48 57.65 57.64 57.50 57.80 57.57 57.30 56.76 56.29 55.79 55.57 55.09 55.15 55.30 55.26 55.97 56.38 56.72 56.79 56.99 57.20 57.09 56.92 57.21 57.47 57.49 57.97 58.25 58.35 57.73 59.60 64.22 64.96 67.32 70.82 70.64 71.58 71.70 71.66 71.75
49.72 51.03 51.03 50.97 52.78 54.65 54.08 54.64 55.32 55.28 54.80 53.68 53.08 52.56 52.55 52.18 52.39 52.66 52.70 54.50 54.97 55.00 55.57 55.90 56.00 56.13 56.05 55.86 55.66 54.95 55.25 56.21 53.34 54.74 61.09 64.26 66.78 70.02 69.46 70.51 70.81 70.77 70.55
46.72 47.54 47.45 47.82 49.39 48.35 47.85 52.44 53.11 52.96 52.35 51.09 50.41 49.44 48.59 51.19 50.95 50.73 49.55 51.51 52.78 52.97 53.89 54.19 54.42 54.51 54.38 54.97 55.27 57.12 56.08 56.30 50.83 55.47 60.37 62.55 66.86 68.31 69.69 70.31 70.33 69.81 69.67
45.88 45.70 46.22 46.20 46.24 47.20 46.77 48.71 50.31 50.58 49.83 49.73 49.10 48.84 50.32 45.81 45.28 46.69 48.97 50.19 51.17 51.43 52.40 53.03 53.25 53.10 53.00 52.80 54.18 55.70 55.49 48.64 48.23 49.32 52.07 59.72 64.65 64.39 66.74 68.81 69.57 69.55 69.57
42.79 43.57 44.43 44.92 44.83 45.44 46.04 44.74 44.98 45.89 45.03 45.32 45.70 45.07 45.37 44.87 44.17 46.81 48.61 50.78 49.83 49.95 50.39 50.91 51.26 50.95 49.38 46.11 46.00 50.07 46.85 47.31 47.11 47.52 48.79 58.10 58.59 60.05 62.44 64.38 66.75 67.94 68.82
43.08 43.26 43.68 44.36 44.33 43.64 42.32 44.23 43.77 43.92 43.43 43.66 43.58 43.52 43.98 44.34 43.12 42.84 42.66 42.79 42.96 46.57 43.21 44.07 43.96 44.16 44.02 44.42 44.87 45.08 45.79 45.94 45.47 46.64 49.55 55.45 55.49 57.24 58.52 59.83 61.74 64.22 66.08
44.00 43.35 42.80 43.37 43.42 43.56 43.55 43.39 43.34 42.98 42.89 42.41 42.15 42.25 41.86 41.37 40.62 40.41 40.54 40.79 40.55 40.82 39.77 39.92 40.67 42.07 42.20 43.36 43.77 43.97 44.57 44.68 44.85 45.87 47.04 53.07 54.45 55.15 56.88 58.03 58.98 59.93 61.46
44.25 43.77 42.35 42.04 42.22 43.65 42.56 42.32 42.49 41.26 42.03 41.73 41.34 40.42 40.49 39.76 38.72 39.23 39.12 39.19 38.82 38.81 38.30 37.98 38.86 39.59 40.08 41.66 42.48 42.54 42.39 42.58 43.15 44.69 45.22 50.59 53.52 53.67 55.42 56.84 57.91 58.99 60.09
45.34 43.63 42.41 42.11 42.15 42.90 41.85 41.57 41.57 41.27 41.02 40.80 40.27 38.83 39.22 38.75 37.07 37.51 37.73 37.95 37.71 37.47 37.30 37.36 37.64 37.71 38.38 39.87 40.80 41.44 41.28 41.63 42.31 42.77 44.11 44.88 52.05 52.96 53.36 55.10 56.40 57.59 58.76
45.94 43.61 42.09 41.49 42.28 41.39 41.32 41.62 41.09 40.60 40.77 39.59 39.30 38.73 37.90 38.04 36.68 36.18 36.28 36.03 36.45 36.65 36.43 36.31 36.84 37.16 37.01 38.59 38.02 39.72 40.36 40.94 41.70 42.12 43.09 43.64 44.93 50.40 52.34 53.24 54.65 55.82 56.91
44.45 42.69 41.95 43.21 41.91 40.55 40.17 40.46 40.58 38.99 38.68 38.10 38.09 37.63 37.45 37.43 36.52 35.10 34.89 34.98 35.56 35.47 35.00 34.87 34.89 34.86 35.18 35.73 35.63 37.02 38.06 39.50 40.41 40.75 41.39 42.35 43.44 45.18 48.25 51.08 51.78 53.19 54.53
43.42 41.93 40.93 40.28 40.18 39.87 39.88 39.53 38.99 38.23 37.24 36.90 36.18 36.10 36.49 36.68 36.55 34.98 34.32 34.15 34.76 34.29 33.95 34.45 34.21 33.85 33.26 34.07 35.51 36.57 36.39 36.76 37.90 40.22 40.38 41.78 42.56 44.06 43.96 47.99 52.01 52.87 53.26
42.62 41.07 40.49 40.12 39.30 39.35 38.75 37.58 37.16 36.74 36.02 35.43 34.78 35.36 35.72 35.57 35.84 34.18 33.49 33.66 34.07 33.16 33.09 33.57 32.70 33.33 33.25 33.66 36.50 35.83 35.58 37.25 37.80 37.66 38.82 41.63 42.30 43.10 43.74 44.75 45.40 47.24 52.51
41.65 40.26 39.92 38.86 38.61 39.40 37.37 35.39 34.29 34.76 34.25 33.62 34.79 35.38 35.12 35.04 34.96 33.38 32.44 32.48 32.59 31.60 31.91 32.62 32.47 32.14 31.87 33.23 32.35 32.32 33.64 35.32 35.81 37.46 39.05 39.81 41.47 41.66 41.72 43.05 43.98 44.57 46.02
40.93 39.89 39.46 39.10 38.76 38.99 38.02 36.32 34.92 34.93 34.13 34.01 34.89 34.58 35.00 34.29 33.83 33.07 31.66 31.17 31.32 30.36 31.14 31.39 31.74 30.94 31.37 32.44 29.55 29.92 27.55 31.03 34.50 35.54 36.14 36.79 38.54 40.53 41.77 42.65 41.34 42.23 43.42
39.88 39.63 39.38 39.20 38.87 38.72 37.28 36.42 33.82 33.46 32.88 31.64 32.29 32.29 33.36 33.70 33.00 32.57 31.66 30.87 30.54 30.52 29.66 30.30 30.14 29.97 28.44 29.98 30.93 29.33 26.00 25.21 29.72 33.09 34.15 35.09 35.33 36.31 37.26 39.11 41.01 41.18 41.05
39.73 39.45 39.41 39.20 38.64 38.37 36.95 35.42 33.15 31.48 29.62 30.89 32.56 32.56 32.52 32.94 32.22 32.22 31.81 30.96 30.15 29.93 29.29 29.82 31.52 29.36 28.66 27.31 29.39 32.57 30.85 30.09 26.84 26.09 31.28 32.77 34.36 35.48 36.17 37.50 38.61 39.84 39.76
39.25 38.92 38.82 38.24 38.14 37.94 36.73 35.24 32.85 30.39 31.22 32.32 32.34 30.53 29.85 30.56 31.23 30.49 30.77 29.82 28.81 28.76 29.23 29.12 28.95 28.74 28.64 27.68 27.28 27.50 27.74 28.60 29.39 27.31 24.85 27.80 32.10 33.63 35.26 35.99 36.74 37.38 38.73
38.56 37.80 38.40 37.76 37.51 37.11 35.80 34.05 33.09 32.04 31.35 30.44 28.47 28.56 28.64 28.99 28.88 29.35 29.84 28.41 28.02 27.72 27.72 28.27 28.13 27.76 27.19 27.53 27.38 27.24 27.06 26.05 25.78 25.79 24.97 25.89 26.54 29.72 32.62 33.89 34.46 35.56 36.88

GFSSE_sfc_wetblb_003.txt.gz
Wetbulb
61.12 64.57 70.21 70.58 70.77 71.80 72.41 72.36 72.25 72.24 72.34 72.09 71.91 71.91 72.33 72.24 71.79 71.61 72.07 72.41 72.43 72.45 72.50 72.49 72.89 72.86 72.60 72.30 72.26 72.42 72.44 72.50 72.61 72.47 72.37 72.19 70.30 72.87 73.92 74.19 73.69 73.20 74.19
62.29 64.95 68.62 69.36 69.92 70.45 71.20 72.07 71.89 71.86 71.93 71.82 71.62 71.51 71.52 71.08 70.78 70.76 70.30 70.83 71.44 71.99 72.31 72.48 72.05 71.67 71.73 72.13 71.96 71.94 72.07 72.24 72.72 72.57 72.29 71.76 71.75 70.94 74.57 74.05 73.74 73.54 73.70
62.41 63.93 65.40 68.31 68.59 68.89 69.44 70.45 71.00 70.92 71.22 71.50 71.06 70.23 69.80 68.86 69.00 69.19 68.69 68.42 68.91 69.66 70.05 70.73 70.01 69.62 69.71 70.45 71.31 71.73 71.52 71.52 71.91 71.55 70.49 68.98 68.00 73.68 73.95 74.02 74.03 73.76 73.65
60.97 61.49 62.56 66.84 67.42 68.35 68.03 68.32 68.85 68.82 68.84 69.30 69.28 68.36 67.35 66.82 67.48 67.47 67.14 66.66 66.96 67.66 68.44 68.46 67.73 66.96 67.13 68.18 69.38 70.14 70.67 71.03 71.25 70.33 67.06 67.66 67.97 71.81 72.66 73.33 73.65 73.63 73.33
58.28 60.05 62.64 65.69 66.26 66.54 66.59 66.85 67.62 67.35 67.07 67.70 66.76 65.91 65.97 65.48 64.91 64.34 63.71 63.02 63.10 63.68 65.26 66.07 65.20 64.63 64.52 65.21 66.49 67.47 67.85 67.82 68.17 69.22 66.74 65.39 66.89 71.40 71.87 71.59 72.10 72.80 72.32
56.95 59.00 62.87 64.27 64.62 64.33 64.30 64.93 65.62 65.28 66.24 64.09 63.19 62.59 62.76 62.02 61.46 60.59 60.08 59.82 60.00 60.16 61.08 61.47 60.70 60.24 60.37 61.25 62.63 64.07 64.65 64.72 65.51 65.45 66.64 66.56 66.01 69.84 71.32 71.58 72.07 71.50 71.19
54.49 55.94 58.64 63.05 62.73 62.66 62.45 62.30 62.14 62.36 63.14 61.34 60.34 59.43 59.07 58.48 58.36 58.44 58.53 58.57 58.51 58.64 58.93 59.06 58.86 58.70 58.59 58.70 58.94 59.22 59.62 59.64 57.97 59.97 63.53 65.13 65.24 70.18 71.38 71.77 71.82 71.75 71.71
53.30 54.05 55.59 60.07 61.59 61.25 61.10 60.75 60.27 60.12 59.87 58.95 58.17 57.38 57.05 56.68 56.43 56.51 56.73 56.99 56.96 57.17 57.47 57.92 57.63 57.65 57.42 57.35 57.34 56.40 55.82 56.55 53.76 51.93 55.55 61.69 65.52 68.95 70.17 71.67 71.42 70.68 70.31
52.73 51.81 51.50 52.71 56.26 58.86 59.66 59.50 58.94 58.33 57.37 56.75 56.15 55.13 54.35 54.08 53.99 53.04 53.82 55.29 55.50 56.18 56.43 56.54 56.50 56.21 56.26 56.52 56.63 56.61 57.84 58.27 52.09 51.31 54.17 59.66 66.65 67.96 69.98 70.98 70.82 70.25 69.63
49.10 49.83 49.13 49.25 49.74 49.02 50.50 57.09 57.22 56.28 54.89 53.72 53.21 52.76 52.97 52.32 52.14 51.11 50.94 53.15 54.03 54.88 55.21 55.22 55.26 54.96 53.60 53.87 54.32 54.29 55.57 52.28 46.79 48.01 50.41 53.46 60.86 62.92 66.02 68.16 69.80 70.08 69.19
46.03 46.25 46.60 46.95 46.84 46.25 47.28 51.28 54.40 54.12 52.17 51.77 50.76 51.15 50.43 44.02 44.75 46.49 50.56 51.55 52.23 52.66 52.69 52.73 52.74 51.77 51.22 50.86 51.67 52.63 51.58 46.61 46.50 47.16 48.04 56.27 58.25 59.81 61.44 63.27 65.40 67.24 68.71
42.14 43.41 45.20 44.33 44.66 45.12 47.75 46.50 45.12 46.63 45.25 45.02 45.02 43.84 44.43 42.77 44.06 46.36 49.01 50.05 49.59 49.08 49.55 49.94 49.97 49.06 46.88 43.84 43.85 47.66 45.04 45.39 45.53 45.87 47.21 53.75 55.54 57.41 58.74 59.66 60.44 61.98 63.69
42.14 42.36 43.91 44.15 43.00 43.46 42.84 43.29 42.41 42.45 41.90 42.59 42.16 42.62 42.87 42.49 41.63 41.62 41.04 41.19 41.05 43.91 40.32 41.67 41.40 41.76 41.22 41.58 42.48 42.38 43.28 43.48 43.32 44.70 47.19 52.29 53.78 55.50 57.16 58.07 58.95 59.83 60.50
40.88 43.06 42.36 42.85 42.71 41.52 41.60 42.86 41.61 41.60 41.17 41.07 40.95 41.82 41.02 39.77 38.89 39.05 38.86 38.74 38.33 38.22 37.12 37.51 38.32 39.39 39.64 40.67 41.44 41.46 41.47 41.33 41.74 43.01 44.72 50.22 51.54 53.84 55.98 57.45 58.23 58.92 59.62
41.73 42.01 41.82 42.08 41.90 41.91 41.68 41.48 41.03 40.68 40.71 40.47 39.12 39.89 39.99 38.57 37.28 37.90 37.45 37.27 36.53 36.57 36.25 36.10 36.79 37.49 37.87 39.41 40.14 40.20 39.97 40.23 40.60 41.78 42.22 48.01 49.69 51.55 53.60 55.69 57.05 58.01 58.78
43.62 42.05 41.65 42.12 41.73 42.13 40.61 40.12 40.49 39.88 40.02 39.67 37.66 37.60 38.79 37.59 36.12 36.69 36.31 36.26 35.58 35.49 35.51 35.51 35.59 35.65 36.12 37.40 38.39 38.98 38.97 39.24 39.94 40.56 41.52 41.94 48.17 49.55 51.31 53.30 55.27 56.60 57.48
44.22 42.57 41.16 41.30 41.13 41.79 40.46 40.01 40.36 39.31 39.68 38.17 37.03 36.76 37.00 36.83 35.60 35.35 35.04 34.64 34.37 34.92 34.80 34.86 34.83 35.23 34.94 36.32 35.78 37.32 37.81 38.48 39.20 39.24 40.10 40.77 42.27 47.42 49.92 51.51 52.74 53.91 54.84
42.53 41.22 41.29 42.86 41.30 40.82 40.17 39.20 39.85 38.40 37.49 37.30 36.35 35.68 36.11 36.31 35.49 34.09 33.94 33.69 33.99 33.99 33.65 33.40 33.25 33.40 33.15 33.56 33.71 35.03 35.69 36.82 37.09 37.49 38.45 39.27 40.34 42.65 46.22 50.07 51.29 52.24 53.25
43.84 41.72 40.22 40.91 39.92 39.83 38.20 38.33 37.55 36.61 36.22 35.91 35.18 34.48 34.95 35.40 35.23 33.67 33.28 33.09 33.66 33.09 32.75 33.19 32.64 32.08 31.54 32.24 33.67 35.02 35.21 35.22 35.53 37.99 37.77 39.37 40.00 41.68 42.10 46.42 50.49 51.53 52.33
43.60 41.61 40.41 40.04 39.25 38.82 38.51 36.69 35.69 34.87 34.13 33.68 33.33 33.80 34.25 34.13 34.34 32.93 32.44 32.89 33.14 32.27 32.07 32.06 31.17 31.82 31.63 31.74 34.34 34.64 34.07 35.19 34.48 34.11 35.79 39.05 39.70 40.98 41.70 42.20 43.04 44.99 50.93
40.89 39.58 38.78 38.45 38.80 39.14 37.91 35.73 34.66 34.15 32.30 31.78 32.38 33.48 33.31 33.20 33.53 32.32 32.14 32.01 32.13 31.50 31.51 32.07 31.69 31.15 30.87 31.55 30.55 30.73 31.56 33.78 33.48 34.33 34.34 34.36 35.82 38.49 40.28 41.67 42.05 42.36 43.33
39.08 39.16 38.57 38.73 38.52 38.93 38.68 37.79 34.00 33.99 31.41 32.03 32.58 32.50 33.03 32.94 32.93 32.45 31.82 31.05 31.02 30.33 30.88 30.90 30.88 29.73 30.21 30.62 28.44 28.00 26.66 30.35 32.89 34.89 34.25 35.41 34.79 36.54 37.52 38.90 38.81 40.17 40.33
38.23 37.49 38.16 38.37 38.48 38.55 37.74 35.62 32.47 32.41 31.23 30.34 31.12 31.38 31.97 32.48 32.42 31.77 30.88 30.42 30.03 30.02 29.31 29.64 29.27 29.27 27.98 28.63 29.91 28.57 25.63 24.80 29.17 31.61 33.32 33.34 33.26 34.49 35.35 36.41 39.02 38.74 39.30
38.46 38.33 38.71 38.01 37.96 37.74 36.26 35.84 33.15 34.21 32.00 33.10 33.44 32.37 31.50 32.03 31.36 31.45 30.94 30.20 29.69 29.56 29.05 29.08 30.50 28.79 28.24 26.87 28.39 31.48 29.64 28.43 25.52 24.55 30.05 31.97 33.47 33.48 33.86 34.57 35.83 37.57 37.78
37.99 37.85 37.80 37.35 37.30 37.12 36.46 36.30 33.90 33.22 33.65 30.39 30.77 30.46 30.47 29.80 30.53 30.16 30.30 29.39 28.59 28.47 28.91 29.09 28.42 27.98 28.04 27.31 27.14 27.19 27.08 27.37 28.18 25.91 23.68 25.55 29.99 31.52 32.49 33.44 34.37 35.23 36.27
36.73 36.97 36.71 36.15 36.37 36.81 36.01 35.36 34.09 32.51 29.89 29.81 30.45 30.10 29.76 29.48 28.88 28.80 29.28 27.84 27.71 27.69 27.88 28.03 27.88 27.35 26.74 26.64 26.83 26.79 26.72 25.52 25.19 24.38 23.95 24.76 24.98 27.45 30.17 31.62 32.11 33.03 34.25

GFSSE_sfc_wetblb_006.txt.gz
Wetbulb
61.59 65.21 70.74 71.04 71.94 71.98 71.81 71.92 71.76 72.00 72.37 72.13 72.08 72.37 72.14 71.50 71.35 71.52 71.76 71.91 72.26 72.52 72.67 72.62 72.18 72.08 72.21 71.97 71.73 71.83 71.81 71.69 71.84 71.56 71.33 71.63 71.92 70.99 73.62 73.60 73.23 72.29 73.34
62.53 65.29 69.61 70.93 71.25 71.93 72.12 72.24 71.98 72.35 71.86 71.77 71.62 71.49 71.20 70.83 70.58 70.34 70.20 70.15 70.40 70.91 71.36 70.95 70.49 70.18 70.56 70.90 71.63 71.41 71.30 71.23 71.05 70.86 70.41 70.45 70.72 70.81 73.44 73.53 73.32 72.80 73.23
63.10 65.18 66.97 69.91 70.07 70.59 71.55 71.61 71.74 71.95 71.66 71.33 70.60 69.82 69.21 69.08 69.60 69.02 68.64 68.80 69.31 69.68 69.54 69.28 68.31 67.73 67.97 69.07 69.81 70.76 71.15 71.04 70.80 70.45 69.18 66.61 67.28 73.66 73.25 73.33 73.14 73.30 73.51
62.42 62.83 64.63 68.51 68.99 68.89 68.84 68.87 70.12 69.84 69.96 69.04 68.75 68.13 67.59 67.87 68.32 67.79 66.71 66.26 66.52 67.03 68.21 67.96 66.62 65.80 65.60 66.39 67.39 68.25 68.39 68.12 68.32 68.91 66.67 66.03 66.90 71.68 70.32 71.89 71.81 72.40 72.54
59.56 60.86 63.11 67.57 68.47 68.38 68.14 68.43 68.52 68.50 68.61 68.54 67.58 66.61 66.36 65.69 65.01 64.11 63.05 62.40 62.33 63.25 64.30 63.22 62.26 61.66 61.54 62.55 63.68 65.09 65.40 65.36 64.96 64.43 65.58 65.67 65.80 68.46 70.78 71.24 70.96 70.77 70.84
57.71 59.90 64.03 66.67 67.30 67.25 67.10 67.47 67.06 66.97 67.31 66.34 65.47 65.10 63.93 63.02 61.54 60.58 60.45 60.14 60.08 60.55 60.59 60.26 59.92 59.71 59.36 59.36 59.64 60.04 59.98 59.24 58.46 56.21 60.12 63.40 64.80 68.86 70.94 71.15 71.51 71.05 70.45
56.15 58.44 61.01 65.87 65.70 65.46 66.02 66.65 66.16 66.66 64.65 63.44 62.65 61.94 60.76 59.79 59.32 59.12 58.95 58.78 58.67 58.78 58.95 58.83 58.57 58.23 57.84 57.91 57.63 56.89 56.50 56.87 52.85 50.18 50.28 53.85 59.31 66.38 69.28 70.96 70.95 70.64 70.51
55.08 56.04 58.49 62.53 63.94 64.17 64.01 63.90 63.88 64.40 62.42 61.35 60.15 59.54 58.89 58.33 57.94 57.76 57.59 57.21 57.48 57.54 57.59 57.74 57.38 57.04 57.15 57.37 57.47 56.22 56.00 55.34 49.99 48.74 50.71 53.29 60.50 64.73 69.42 70.02 70.70 69.93 69.29
53.53 53.52 54.15 56.37 59.48 61.98 62.40 62.17 61.97 61.74 60.73 59.68 58.57 57.96 57.09 56.22 55.14 55.33 55.89 55.91 56.65 56.87 56.99 56.70 56.32 54.79 54.76 54.89 54.56 54.44 53.79 53.33 44.58 46.60 49.20 50.24 59.59 62.05 65.18 67.33 68.49 69.80 68.99
50.82 51.37 51.06 51.61 52.83 53.13 55.73 59.99 60.25 59.90 58.77 58.04 56.75 56.10 55.42 53.94 52.43 52.93 53.09 54.48 55.86 55.72 55.23 54.75 53.60 52.81 52.42 52.57 52.98 52.68 51.90 50.33 44.83 45.63 46.74 50.13 56.86 60.02 61.69 62.57 63.52 65.32 66.98
49.43 49.59 49.08 49.15 48.77 48.73 50.03 53.88 57.50 57.64 56.96 56.26 55.02 54.39 50.79 44.38 45.33 46.92 52.45 52.85 53.20 52.96 52.84 52.62 51.55 50.21 48.89 49.36 50.04 49.84 48.57 44.24 44.05 44.49 45.43 52.64 55.25 57.68 59.09 59.75 60.46 61.17 62.33
46.59 46.55 48.14 47.56 46.63 45.85 49.76 49.46 48.66 49.06 46.99 45.76 45.07 45.83 42.95 41.94 42.92 46.52 49.42 50.69 49.69 49.25 49.64 49.91 48.71 47.29 44.25 41.04 41.39 44.89 41.90 42.05 42.17 42.54 43.73 51.23 53.12 55.45 57.13 58.05 58.71 59.55 60.50
46.01 45.58 46.76 46.14 45.43 44.17 45.85 45.00 43.64 43.35 42.81 42.88 41.91 42.24 41.85 42.27 42.32 40.72 40.03 39.93 39.07 41.97 38.29 39.95 39.22 39.24 38.87 39.35 39.81 39.76 40.11 39.88 39.47 40.85 43.77 49.22 50.87 53.38 55.89 56.83 57.80 58.54 59.26
40.80 43.69 44.58 44.56 44.22 42.85 41.84 43.40 41.85 41.97 40.73 40.73 40.68 41.51 40.07 38.87 38.43 38.17 37.94 37.41 36.64 36.37 35.62 35.99 36.57 37.48 37.49 38.68 38.87 38.69 38.33 38.23 38.39 39.66 41.20 46.58 48.55 51.37 53.80 55.34 56.52 57.41 58.32
39.82 42.35 42.57 43.39 43.09 43.05 40.99 41.21 40.27 40.10 41.01 40.34 39.51 40.68 39.72 37.91 37.12 37.19 36.60 36.11 34.97 35.21 34.85 34.54 35.26 35.68 36.17 37.22 37.68 37.48 37.23 37.27 37.67 38.65 39.05 44.47 46.96 49.67 51.84 53.51 54.97 56.49 57.23
41.95 41.52 41.91 43.02 42.60 42.23 40.65 40.77 40.89 39.99 39.75 39.22 37.59 38.51 38.97 37.32 36.29 36.20 35.53 35.22 34.31 34.31 34.12 34.39 34.22 34.39 34.45 35.60 36.00 36.60 36.29 36.51 37.14 37.48 38.14 38.52 45.36 47.57 49.64 52.05 53.52 54.57 55.48
42.77 42.50 41.05 42.31 41.86 41.36 41.02 40.73 40.05 39.82 40.01 38.42 36.57 36.95 37.44 36.57 35.69 35.00 34.70 33.83 33.61 33.88 33.91 33.52 33.72 33.86 33.24 34.66 33.98 35.26 35.77 36.36 36.70 36.44 36.71 37.50 38.99 44.46 47.63 50.62 52.00 52.92 53.91
42.95 41.51 41.72 43.28 41.38 41.51 41.06 40.51 40.37 39.33 38.87 37.89 35.67 35.24 36.20 35.90 35.21 33.95 33.54 32.97 33.20 33.01 32.78 32.48 32.42 31.87 31.88 32.17 32.14 33.05 33.84 35.17 35.60 35.65 36.23 36.94 37.81 39.70 43.75 48.15 50.42 51.11 52.28
43.31 42.50 41.10 41.65 40.71 41.04 39.60 39.81 38.63 37.58 37.71 37.18 35.09 34.04 34.52 35.11 34.74 33.33 32.88 32.43 32.91 32.36 32.07 32.76 31.24 31.15 30.53 31.18 32.51 32.95 33.33 33.47 33.89 36.24 35.36 36.84 37.57 38.93 39.34 44.73 47.96 48.94 50.83
43.22 42.57 41.85 41.04 40.39 40.31 39.22 36.56 35.40 35.94 35.01 35.78 34.42 33.48 33.79 33.83 33.91 32.50 32.12 32.20 32.38 31.55 31.27 31.00 30.39 31.00 30.75 30.63 33.16 32.93 32.03 32.58 32.91 32.49 34.06 36.18 35.41 36.82 38.27 39.84 40.92 42.06 47.02
41.71 40.96 40.08 39.49 39.04 39.64 38.02 36.77 35.65 36.05 34.47 32.47 33.08 33.78 33.15 33.02 32.93 31.83 31.22 31.28 31.30 30.52 30.49 30.63 30.67 30.09 29.78 30.07 29.18 29.38 30.59 31.96 32.22 32.40 32.08 32.86 34.63 36.02 36.02 36.76 37.15 38.35 39.65
41.03 40.25 39.21 39.44 38.50 39.88 39.93 39.38 37.23 35.53 31.42 34.09 33.34 33.47 33.42 32.69 32.08 31.59 30.93 30.36 30.36 29.65 29.98 29.89 30.09 28.79 29.42 29.36 27.20 27.06 25.76 28.50 31.90 32.55 32.08 32.30 32.21 33.26 34.40 36.18 36.47 36.94 36.30
38.56 38.57 38.53 39.15 38.76 39.74 39.20 36.57 32.19 31.67 30.22 29.65 30.83 31.15 31.61 31.95 31.65 31.40 30.61 30.02 29.48 29.51 28.58 28.74 28.66 28.77 27.37 27.79 28.50 27.23 24.47 23.85 26.41 30.23 30.71 31.68 31.19 31.68 32.39 33.34 33.73 34.59 36.64
38.22 38.27 38.64 38.66 38.48 38.76 37.94 36.04 34.06 35.99 33.59 33.08 33.47 31.13 30.15 31.35 31.09 30.80 30.42 29.74 29.07 28.86 28.39 28.43 29.58 28.30 27.77 26.40 27.68 30.13 28.34 27.56 24.27 23.26 28.06 29.05 30.19 30.53 30.77 30.99 32.13 33.71 34.05
36.40 36.74 37.65 37.56 37.84 37.38 36.49 36.95 35.01 34.82 35.11 30.06 29.48 29.42 29.97 29.56 30.34 29.71 29.71 28.70 28.17 28.21 28.20 28.82 27.90 27.68 27.43 26.87 26.75 26.70 26.59 25.99 25.96 24.72 22.87 25.55 28.67 29.03 30.21 29.95 30.59 31.41 32.78
33.86 35.63 36.11 35.90 36.34 35.42 35.82 35.53 34.70 34.78 30.93 30.35 29.72 30.20 29.63 29.49 29.12 28.96 28.93 27.73 27.49 27.55 27.78 27.78 27.28 27.33 27.01 26.51 26.48 26.42 26.19 24.66 24.33 23.78 22.96 22.75 23.27 26.28 28.50 29.80 29.65 30.41 31.65

GFSSE_sfc_wetblb_009.txt.gz
Wetbulb
60.87 64.56 70.89 71.62 71.63 72.17 72.33 71.85 71.61 71.61 71.96 72.29 72.46 72.53 72.09 71.91 71.81 71.74 71.78 71.86 72.49 72.52 72.03 71.25 71.09 70.92 70.97 71.52 71.18 71.20 71.35 71.03 70.60 70.16 69.89 71.06 71.28 70.95 72.96 73.14 72.71 71.73 73.01
62.82 65.52 70.32 71.60 71.84 71.72 71.80 71.69 71.50 72.12 72.22 71.94 72.03 71.77 71.20 70.86 70.75 70.63 70.08 70.04 70.46 70.72 70.48 69.97 69.33 69.04 69.52 69.99 70.62 71.24 71.10 70.69 70.33 70.15 69.15 68.75 69.89 73.43 73.37 73.12 72.94 72.23 73.11
64.08 65.49 68.23 71.02 71.90 72.30 72.33 72.25 72.07 71.82 71.74 71.59 71.12 70.66 70.28 69.78 69.59 68.85 68.60 68.65 69.16 69.42 69.25 68.34 67.55 66.61 66.74 67.59 68.56 68.87 68.65 68.00 67.78 68.58 68.56 65.36 65.58 71.98 72.17 73.13 72.74 72.62 72.55
63.57 64.79 65.84 69.74 71.06 71.22 71.95 72.03 72.13 71.95 71.20 70.41 69.65 68.65 67.81 68.79 68.61 67.52 66.69 66.63 66.47 67.03 67.71 66.24 64.61 63.71 63.87 64.27 65.12 65.78 65.55 64.96 64.47 63.41 64.31 65.56 66.07 69.18 71.26 71.52 71.34 70.94 71.28
61.50 62.96 64.74 68.85 69.67 69.62 69.57 69.63 69.24 69.30 69.72 69.13 67.53 66.96 67.87 67.08 65.81 64.52 63.70 63.05 63.70 64.35 63.27 62.35 61.67 61.05 60.91 60.87 61.14 61.34 60.25 59.41 57.89 54.34 56.20 59.84 62.76 66.61 70.65 71.04 70.55 70.28 70.21
59.14 60.89 64.84 68.02 68.91 68.93 68.72 68.86 68.25 68.03 68.03 67.81 66.69 66.49 65.93 64.84 63.24 61.88 61.40 60.90 61.19 61.01 60.76 60.42 59.94 59.43 59.24 58.96 58.45 57.92 58.32 58.08 54.81 49.35 49.42 51.95 55.56 66.09 69.01 70.24 70.61 70.58 70.27
57.22 59.08 62.33 67.45 67.49 67.94 67.85 68.20 67.09 67.14 67.26 66.72 66.29 65.05 63.81 61.90 60.95 60.51 60.01 59.54 59.57 59.56 59.41 59.00 58.42 58.51 58.56 58.53 57.77 57.23 56.68 54.40 47.93 47.48 50.03 52.13 56.09 64.40 69.17 69.92 70.51 70.03 69.61
56.81 57.98 60.11 64.32 66.01 66.73 67.06 67.22 66.82 66.70 66.09 64.76 63.88 62.44 61.16 60.09 59.68 59.23 58.72 58.69 58.68 58.58 58.51 57.99 57.93 57.55 57.30 56.79 55.74 55.31 54.76 52.84 46.27 45.47 46.80 49.52 59.40 63.61 65.85 67.06 68.04 69.59 69.26
55.40 56.15 57.06 59.28 61.67 63.82 65.41 65.61 66.08 65.45 63.82 62.35 61.18 60.21 59.40 58.64 57.94 57.60 57.05 57.76 58.12 58.07 57.75 57.42 55.67 55.42 55.27 55.01 54.60 53.57 52.64 51.79 42.80 44.56 46.88 48.84 57.67 61.21 62.84 63.14 63.98 64.71 65.90
52.65 53.80 53.96 55.12 56.81 57.23 58.15 61.85 62.86 63.57 62.29 60.99 59.61 59.17 58.12 55.94 55.71 55.92 56.39 57.24 57.09 56.71 56.33 54.89 53.64 53.07 53.19 52.86 51.86 51.14 49.87 48.17 42.28 42.90 44.26 49.09 56.36 59.13 60.52 60.79 61.18 61.92 62.63
50.96 51.42 51.51 52.10 52.69 53.02 53.69 56.09 59.48 60.54 60.27 59.45 57.72 56.78 53.84 46.05 47.19 48.31 53.33 55.98 55.08 54.49 54.22 52.92 51.40 49.99 48.91 49.26 49.65 48.74 46.38 41.18 40.94 41.30 42.53 51.92 54.35 56.95 58.32 58.78 59.34 60.00 60.56
49.29 49.65 50.17 49.71 49.69 49.37 51.52 51.82 51.82 52.49 51.24 49.76 48.74 47.51 43.30 42.43 43.48 46.43 50.75 52.99 52.00 51.51 51.67 50.56 48.87 46.79 43.03 39.35 39.66 43.18 39.17 39.19 39.16 39.76 41.36 49.88 52.45 55.28 56.81 57.65 58.41 58.96 59.47
50.13 49.35 48.95 49.18 47.80 46.88 47.77 47.88 47.38 46.13 45.02 44.44 43.45 43.10 40.76 41.53 43.39 41.71 40.80 39.09 38.58 41.64 37.64 39.23 38.16 37.69 37.63 37.79 37.89 37.30 37.46 37.31 36.82 38.32 41.66 47.60 50.20 52.96 54.89 55.91 57.16 58.10 58.46
45.80 48.41 47.77 47.75 46.74 44.56 44.28 46.29 44.88 43.92 42.00 41.31 40.58 41.46 39.57 40.02 38.43 37.90 37.48 36.40 35.76 35.57 35.07 35.41 35.54 36.15 36.25 37.15 37.00 36.39 36.21 35.93 36.07 37.31 38.78 45.10 48.24 51.65 53.58 54.82 55.65 56.80 57.76
42.50 46.16 46.25 46.33 46.30 44.92 42.81 43.83 42.40 41.80 42.50 40.70 39.70 40.47 39.47 38.30 37.16 36.84 36.17 35.25 34.29 34.52 34.15 33.92 34.25 34.71 34.84 35.82 35.85 35.59 35.27 35.54 35.90 36.54 36.50 43.08 46.59 49.87 52.23 54.00 55.07 55.59 56.41
41.99 42.54 44.48 45.30 45.50 44.32 42.47 42.68 42.93 41.68 40.75 39.75 38.65 39.45 38.88 37.92 36.55 36.01 35.06 34.28 33.50 33.65 33.58 33.62 33.50 33.31 33.28 34.51 34.51 35.05 34.88 35.16 35.60 35.52 35.65 36.29 44.66 47.19 50.16 52.81 53.83 54.54 55.72
42.85 41.94 42.15 44.00 44.15 43.54 42.31 41.41 41.16 40.80 40.73 39.66 38.47 38.27 38.29 37.31 35.81 34.91 34.49 33.21 32.97 33.02 33.28 32.99 32.97 32.59 32.29 33.42 32.88 33.85 34.52 34.99 35.06 34.84 35.41 35.97 37.62 43.65 47.88 50.99 52.05 52.51 53.41
42.80 41.11 41.78 44.09 43.15 42.97 42.26 41.19 40.65 39.93 40.15 39.54 37.14 36.51 37.19 36.46 35.53 34.10 33.49 32.56 32.67 32.31 32.09 31.85 31.43 30.99 30.89 31.24 31.19 32.20 32.66 33.81 34.24 34.69 35.29 36.01 36.22 38.88 41.53 48.92 50.50 50.85 52.16
42.98 42.36 40.83 41.99 42.25 42.04 41.64 40.90 39.92 39.03 39.36 38.68 35.64 35.43 35.48 35.36 35.00 34.10 32.95 32.15 32.22 31.60 31.28 31.88 30.37 30.37 29.79 30.36 31.88 31.95 31.79 31.89 32.82 34.91 34.40 34.69 35.47 36.33 37.82 43.96 45.06 46.48 49.06
42.10 42.46 41.88 41.42 41.81 41.52 40.73 38.78 36.91 37.44 36.62 36.32 36.21 34.96 34.87 34.98 34.15 32.89 32.07 31.70 31.75 30.91 30.56 30.21 29.73 30.19 29.97 29.40 31.95 31.45 30.54 31.46 31.98 32.60 32.22 34.04 34.68 34.91 35.17 36.15 36.65 37.67 42.58
39.92 40.72 40.90 40.01 40.25 40.57 38.31 36.88 37.16 37.33 36.36 35.27 34.69 34.76 34.28 33.79 33.37 32.06 31.17 30.80 30.76 30.20 30.01 29.86 29.85 29.21 29.29 28.96 28.21 28.89 29.83 31.51 31.22 30.70 31.17 31.45 32.61 33.22 34.16 34.24 33.46 34.25 34.95
40.84 40.54 40.35 39.96 39.27 40.28 40.07 40.40 37.53 38.75 33.45 35.34 34.20 33.29 33.40 32.81 32.26 31.48 31.15 30.25 29.99 29.11 29.32 29.48 29.68 28.37 28.54 28.21 26.82 26.73 25.72 28.38 30.54 31.15 30.51 32.17 29.86 31.85 32.34 32.97 32.65 33.35 33.98
37.97 38.89 39.46 39.71 38.71 40.24 39.96 36.64 31.64 31.16 29.99 29.70 30.45 32.26 32.45 32.47 31.91 31.43 30.59 30.34 29.69 29.51 28.72 28.46 28.42 28.24 27.20 27.34 27.57 27.03 24.50 24.55 25.43 28.75 29.39 29.37 29.76 29.64 29.71 30.98 32.13 33.01 33.83
39.21 37.88 38.72 38.94 38.09 39.64 38.69 36.97 34.72 35.94 34.59 34.56 35.65 33.99 31.89 31.69 31.06 30.65 30.40 29.76 29.24 28.84 28.07 27.98 28.81 27.96 27.37 26.25 27.76 29.32 27.70 26.99 23.99 23.13 26.82 27.47 28.42 28.90 28.42 29.12 30.07 31.27 31.62
36.13 35.70 36.71 37.22 37.68 38.42 37.83 37.92 36.17 36.53 36.63 31.05 29.95 30.00 30.71 29.67 30.39 29.91 30.01 28.79 28.13 27.91 27.79 28.24 27.74 27.45 26.64 26.58 26.20 26.32 25.93 25.35 25.32 23.76 22.57 24.62 26.47 27.23 28.16 28.70 29.03 29.42 31.09
33.18 33.86 35.02 35.66 36.43 36.53 37.12 36.77 35.98 36.58 32.46 31.39 30.12 30.64 30.29 29.94 29.30 29.41 29.26 28.24 27.55 27.51 27.47 27.83 27.60 27.34 26.92 26.69 26.57 26.30 25.85 24.11 24.38 23.08 22.57 22.26 22.40 24.72 27.39 27.69 27.84 28.93 30.20

GFSSE_sfc_wetblb_015.txt.gz
Wetbulb
62.70 66.37 71.90 73.12 72.60 72.71 72.06 72.11 71.70 71.35 71.70 72.12 72.09 72.31 72.43 72.49 72.28 72.12 72.29 72.69 72.49 71.71 71.19 70.86 70.84 71.05 70.90 71.16 70.99 69.99 68.99 68.39 69.38 69.87 69.65 70.70 73.38 73.39 73.09 72.82 72.54 72.66 72.93
63.60 66.96 71.25 72.57 72.84 72.81 72.66 72.45 71.55 71.25 71.44 72.01 72.37 72.10 71.99 71.76 71.38 71.05 71.10 71.30 71.56 71.29 70.68 69.74 68.84 69.27 69.10 68.80 69.29 68.85 67.79 66.97 66.50 67.52 67.80 68.29 70.94 72.52 72.00 72.57 72.25 72.00 72.60
63.29 66.84 70.85 71.75 72.56 72.87 72.75 72.41 71.88 71.49 71.73 72.04 72.18 71.72 71.34 71.24 70.64 70.18 70.11 70.30 70.73 70.45 69.30 67.76 67.08 66.98 66.77 66.97 67.01 66.04 64.65 63.22 62.40 61.67 62.79 65.04 68.40 71.58 72.07 71.97 71.65 70.69 70.58
63.89 66.93 69.82 70.71 72.07 72.61 72.75 72.43 72.03 71.50 72.22 72.25 71.82 71.25 70.93 70.25 69.80 69.12 68.49 68.29 68.77 68.40 67.37 65.41 64.80 64.41 64.13 64.23 63.30 62.57 62.60 60.37 58.95 57.66 58.82 61.28 64.05 69.39 70.86 71.21 70.54 70.13 70.35
64.39 67.01 68.63 70.31 72.06 72.40 72.51 72.39 72.22 72.23 72.12 71.36 70.54 69.82 68.95 68.63 67.45 66.72 66.06 66.83 67.37 66.52 64.94 63.63 62.53 62.01 61.99 61.29 61.36 60.93 59.60 58.22 57.29 57.05 59.20 62.63 65.37 69.46 70.68 71.05 70.17 69.81 70.32
64.24 66.22 67.95 70.28 72.25 72.42 72.40 72.32 72.39 72.25 71.83 70.90 70.16 68.62 67.75 67.36 66.39 65.25 64.22 65.21 64.49 63.79 62.84 61.76 60.91 60.75 60.42 59.96 59.25 58.02 57.33 56.05 54.00 55.55 58.14 60.88 64.34 67.87 69.10 69.74 70.53 70.24 69.94
63.45 65.12 67.51 69.53 70.91 71.04 70.73 71.23 71.71 71.36 71.09 69.60 68.40 66.58 67.89 66.38 65.25 63.92 62.87 63.09 62.35 61.58 60.62 60.39 60.52 60.29 58.53 58.35 57.88 56.59 55.09 53.43 51.29 53.17 55.43 58.72 64.16 66.25 66.62 66.99 67.25 68.56 69.23
62.53 63.10 65.24 66.66 68.25 69.20 69.93 70.09 70.08 69.92 69.69 68.40 67.32 67.45 66.54 65.38 63.78 62.50 61.79 61.44 60.90 60.38 60.15 60.10 59.32 58.48 57.88 57.13 56.21 55.12 52.79 50.07 49.07 51.24 53.90 56.96 61.70 63.58 64.34 64.84 65.05 65.95 66.37
61.09 61.62 63.14 65.65 66.71 65.60 67.43 68.10 68.57 68.72 68.63 68.45 67.38 66.75 65.40 63.82 62.33 61.24 60.68 60.52 60.58 60.20 59.49 58.66 58.08 57.62 56.73 55.62 54.19 52.57 50.89 49.03 47.81 50.48 52.29 55.82 59.61 61.64 62.31 62.59 63.07 63.75 63.94
58.56 60.14 61.17 62.84 64.39 64.97 66.03 64.69 65.60 66.42 66.96 66.62 66.27 64.63 62.50 61.84 61.48 60.80 60.47 60.55 60.10 59.82 58.21 57.23 56.75 56.14 55.23 53.73 51.95 49.96 47.95 46.83 46.09 48.44 50.98 54.41 57.19 58.95 60.11 60.67 61.29 61.95 62.14
55.57 57.29 58.76 60.26 61.68 62.50 63.24 63.14 63.29 64.00 64.44 64.15 62.85 60.72 58.99 57.53 57.64 57.47 56.72 60.28 59.44 58.05 56.57 55.42 54.94 53.64 52.12 50.84 49.42 47.42 44.62 44.14 44.62 45.88 49.32 52.59 55.91 57.81 58.40 58.68 59.46 60.10 60.57
54.73 55.77 56.55 58.06 59.39 59.53 59.46 61.51 62.91 62.71 62.43 60.83 59.02 56.90 53.94 53.45 53.38 52.84 54.92 58.19 58.63 56.95 54.87 53.58 51.68 48.61 44.35 43.79 44.13 43.59 43.08 42.95 43.32 43.62 47.76 51.31 54.12 55.88 57.23 57.99 58.69 59.06 59.62
55.41 55.32 55.19 55.98 57.23 57.62 57.91 58.17 58.72 58.75 58.34 56.78 55.38 52.36 50.72 50.09 51.31 51.77 52.20 51.08 50.97 49.69 49.15 48.06 44.45 43.18 43.14 43.00 42.25 42.01 42.01 42.23 42.61 42.70 46.85 50.87 53.80 55.53 56.57 57.39 58.50 58.97 58.70
52.07 54.37 54.89 54.61 54.81 55.68 56.06 56.23 56.34 56.34 54.92 53.75 52.55 50.10 48.12 47.33 48.79 48.42 48.24 47.03 46.46 44.96 43.24 42.47 42.40 42.04 41.73 41.25 41.30 40.95 41.11 41.55 41.92 42.51 44.81 48.74 52.23 54.80 56.64 57.57 57.78 58.27 58.56
50.01 52.26 53.19 53.91 54.67 54.68 53.68 54.78 54.33 54.73 53.56 52.76 50.15 48.17 46.84 45.81 46.78 46.10 45.04 42.88 42.20 41.15 41.41 40.94 41.02 40.73 40.72 40.28 40.20 40.28 40.27 40.60 40.81 41.78 43.60 49.01 52.07 54.72 56.37 56.68 57.42 58.15 58.32
49.33 50.48 52.48 52.57 54.14 54.06 53.66 53.45 53.79 53.48 52.57 50.14 49.12 47.69 45.15 45.12 45.31 44.69 41.84 40.55 40.06 40.39 40.24 40.33 40.05 39.79 39.81 39.89 39.13 39.26 39.52 39.91 40.32 41.27 42.58 47.07 50.05 52.68 54.59 55.41 56.28 57.32 58.23
47.10 49.06 50.41 51.71 52.93 53.00 53.11 52.55 52.98 52.21 49.45 49.41 48.25 46.08 44.45 43.70 43.42 42.79 41.26 39.65 39.48 39.22 39.09 38.81 38.22 38.35 38.74 38.59 38.69 38.78 39.14 39.49 40.20 40.23 41.09 42.54 47.17 52.53 52.99 54.27 55.52 55.86 55.84
46.35 45.28 47.56 50.48 50.99 52.15 52.63 52.33 51.94 51.10 49.51 49.46 47.16 45.66 43.91 43.01 42.64 41.27 40.56 39.37 38.66 38.19 38.53 38.42 37.75 37.31 37.95 38.42 37.90 37.65 38.19 39.14 39.43 39.39 40.90 42.03 43.28 43.60 45.77 47.32 48.55 49.86 51.52
45.67 45.63 44.56 47.86 49.83 50.47 51.65 51.83 50.99 49.57 49.10 48.40 45.78 44.53 43.18 42.26 41.53 41.13 40.41 39.15 37.77 37.39 37.43 37.19 36.23 37.16 36.81 36.99 36.84 37.11 37.46 38.51 38.52 38.27 38.83 39.50 39.33 38.70 39.13 42.35 44.45 45.40 47.02
44.83 45.48 45.31 44.38 47.77 49.10 49.99 49.83 47.96 45.76 47.91 46.36 44.75 43.74 42.39 42.19 40.67 40.33 39.39 38.18 37.08 36.53 36.19 36.06 36.16 35.61 36.81 36.69 35.15 35.79 36.78 37.08 37.43 38.09 37.75 38.09 37.68 37.44 37.93 38.07 39.11 41.12 45.46
42.97 42.54 43.16 42.17 44.21 46.62 46.98 45.19 43.14 43.11 44.25 42.51 43.98 43.12 42.14 41.95 40.50 39.96 39.03 37.50 36.65 36.41 36.21 35.91 35.52 35.43 34.84 35.18 35.54 35.25 35.46 36.13 36.15 36.84 36.89 37.06 36.00 35.94 36.83 37.05 37.70 38.23 41.41
43.28 41.96 41.81 41.90 42.38 44.58 46.02 46.02 45.82 45.46 43.97 43.48 42.83 41.59 41.76 41.04 40.08 39.39 38.33 37.09 36.15 35.61 34.94 34.97 35.33 33.91 34.46 33.99 36.00 35.39 33.38 34.94 35.89 35.96 36.01 35.18 34.63 35.59 35.48 35.63 36.21 36.71 38.33
42.17 41.42 40.85 41.58 41.49 43.17 44.44 43.88 36.80 37.99 36.72 37.90 38.22 38.59 39.10 39.62 39.16 39.13 38.04 37.20 35.89 36.07 34.90 34.79 35.33 35.44 34.07 32.90 33.10 37.07 32.05 34.73 33.58 34.25 34.54 34.96 34.20 34.77 34.84 34.95 34.99 35.80 37.02
41.10 41.08 40.16 40.58 40.65 41.86 42.75 41.46 41.12 41.06 39.34 39.26 40.74 40.13 38.79 38.66 38.40 38.57 37.45 36.65 35.97 35.50 35.12 34.48 34.61 35.42 34.95 33.43 32.69 32.70 33.19 34.73 34.06 31.48 32.73 33.47 33.86 33.35 33.54 34.18 34.27 34.92 36.30
38.09 37.62 38.14 38.78 39.29 41.05 41.02 41.25 40.76 41.11 41.55 39.49 40.74 38.98 37.73 37.03 37.66 36.59 36.55 35.80 35.33 34.70 34.88 34.39 33.55 33.73 34.55 34.44 33.83 32.03 31.79 31.84 31.58 33.10 31.90 31.28 32.32 32.70 33.26 33.40 33.95 34.80 35.69
36.93 35.58 36.03 36.83 36.86 38.28 39.39 39.86 39.87 40.28 38.10 37.41 37.12 37.14 36.02 35.17 34.92 34.98 35.20 35.11 35.21 34.58 33.75 33.56 34.13 33.96 33.78 33.58 33.60 33.21 32.69 32.47 31.16 31.38 30.98 30.53 31.19 30.73 32.19 32.67 33.05 34.14 34.49

GFSSE_sfc_wetblb_021.txt.gz
Wetbulb
67.61 70.73 72.11 73.17 73.22 73.21 72.90 72.51 72.22 72.42 72.34 72.33 71.98 71.68 71.83 71.77 71.98 72.01 73.02 72.58 72.15 71.76 71.36 71.29 71.55 71.58 71.09 70.13 69.35 68.74 68.11 68.97 69.59 70.47 73.10 73.27 72.80 72.37 71.81 72.22 72.85 72.19 73.19
68.40 71.14 71.66 73.61 73.65 73.48 72.90 72.67 72.56 72.61 72.39 72.23 71.91 72.11 72.11 71.96 71.97 72.50 72.20 71.75 71.31 70.85 70.19 69.84 69.70 69.68 69.22 69.00 68.22 67.05 66.33 66.12 66.53 66.63 68.36 72.97 72.64 71.56 71.12 71.12 71.43 71.24 72.59
67.63 70.86 71.97 72.86 73.61 73.34 72.88 72.85 72.20 72.02 72.30 72.24 72.83 72.42 72.12 71.63 71.44 71.64 71.59 71.40 70.90 70.14 69.31 68.59 67.88 67.74 67.74 66.61 65.54 65.12 64.27 63.52 62.97 63.27 66.61 70.32 70.97 71.97 70.94 70.37 70.85 70.67 70.96
67.06 70.75 71.62 71.69 73.21 73.27 73.00 72.81 72.15 71.67 72.25 72.51 72.35 72.10 71.72 70.99 70.72 70.58 70.20 70.38 69.65 68.82 67.86 67.03 66.22 65.45 64.69 63.63 63.71 62.69 62.05 61.43 61.37 63.48 66.40 67.82 68.88 71.19 71.30 70.20 69.68 69.90 70.08
66.60 70.60 71.56 71.54 72.98 73.40 73.14 72.72 72.14 71.85 72.18 72.57 72.25 71.80 71.46 70.72 69.69 68.45 67.83 67.57 67.92 67.44 66.04 65.02 64.07 63.39 62.42 61.91 60.77 60.07 59.39 58.26 59.15 63.69 65.95 67.09 68.83 70.42 70.90 70.12 69.52 69.41 70.12
66.10 69.60 70.30 71.48 72.87 73.18 72.95 72.62 72.02 71.60 71.86 72.64 71.97 71.46 70.86 68.83 67.63 66.14 65.61 67.33 67.09 66.07 64.48 63.33 62.42 61.78 60.73 59.48 58.48 57.85 56.71 55.99 59.77 62.49 64.63 65.42 68.38 69.00 69.18 69.95 69.85 69.65 69.98
65.58 67.98 70.59 70.62 71.83 72.48 72.87 72.71 72.27 72.02 72.10 72.59 71.93 71.17 69.70 68.92 67.73 65.30 65.18 65.59 65.36 64.35 62.94 61.93 61.58 59.94 59.02 58.16 56.70 55.40 54.33 55.21 56.73 59.15 62.23 65.40 65.29 66.52 67.21 67.76 68.25 68.63 68.55
65.82 66.83 68.03 68.03 69.55 70.89 71.93 72.24 72.12 72.10 72.38 72.17 71.27 69.30 68.92 68.19 67.18 65.43 64.42 64.53 63.74 62.45 61.66 61.67 59.92 58.91 58.02 57.03 55.33 54.01 52.84 54.37 56.16 56.88 59.87 62.22 63.10 64.19 64.60 65.07 65.44 66.00 66.64
66.91 66.73 67.68 68.80 69.06 67.71 69.48 70.16 70.84 71.57 71.56 71.11 69.34 68.16 68.21 67.56 66.28 65.35 63.89 63.48 62.58 61.40 61.33 60.78 59.30 58.34 57.18 55.57 53.99 52.21 51.37 53.71 54.01 55.31 56.51 58.96 59.74 61.52 62.10 62.55 63.19 63.85 64.17
66.35 66.77 67.15 68.08 68.58 69.54 70.32 66.40 67.89 69.11 69.11 68.70 67.35 66.18 65.43 64.97 64.88 64.07 62.54 62.70 61.52 61.02 60.43 59.64 58.73 57.47 55.91 53.70 51.59 49.73 48.47 52.28 51.78 53.05 55.11 56.17 58.49 59.68 60.27 60.89 61.40 61.96 62.26
64.42 66.20 66.93 67.40 68.11 68.32 68.73 67.94 65.20 65.71 65.93 65.84 64.98 63.43 62.34 64.94 64.16 62.41 60.78 62.07 61.73 61.16 59.69 58.70 57.72 56.11 53.80 51.28 49.18 47.09 48.94 49.89 49.80 51.13 52.92 54.15 56.24 57.66 58.15 58.78 59.45 60.24 60.76
62.42 64.30 66.06 66.90 67.42 68.02 67.35 68.12 68.81 68.40 68.54 67.96 67.34 66.04 65.72 64.69 64.04 61.30 58.83 60.10 61.64 60.23 58.88 57.85 56.45 53.81 51.29 50.82 48.21 48.09 49.46 49.10 49.08 49.47 51.49 53.62 55.11 56.22 57.34 57.77 58.50 59.51 60.50
61.61 63.11 64.23 65.68 66.77 67.35 67.42 67.60 67.59 67.05 66.92 68.55 68.24 66.95 65.95 64.56 62.83 60.55 59.94 59.06 60.06 56.58 56.32 55.67 52.43 49.64 50.26 50.43 49.49 49.20 48.69 49.17 48.82 49.34 50.00 52.37 55.63 56.00 56.80 57.96 59.08 58.95 58.67
58.65 61.20 63.40 64.21 65.28 66.30 66.95 66.60 66.96 66.70 66.78 67.32 67.35 66.91 65.07 63.92 61.44 59.44 58.63 59.18 60.04 57.61 56.48 55.15 51.69 51.52 49.57 48.63 48.57 48.02 48.00 48.44 48.33 49.03 49.23 51.47 54.63 56.12 57.22 57.55 58.17 58.80 59.15
57.18 59.62 62.04 63.91 63.96 64.96 65.53 66.00 65.74 65.90 66.19 66.85 66.34 65.75 64.50 62.47 60.01 58.64 57.80 58.70 58.78 57.05 55.44 52.72 50.48 49.12 48.96 47.81 47.28 47.15 46.82 47.24 47.32 48.23 50.96 51.60 54.27 56.27 56.67 57.40 58.26 58.98 59.41
56.55 58.50 60.36 61.99 63.32 63.55 64.10 65.00 65.05 65.54 65.56 65.71 65.23 64.50 63.55 61.71 59.50 57.50 56.74 57.31 56.94 55.66 53.66 50.62 49.50 48.82 48.42 48.13 46.34 46.25 46.09 46.46 46.64 47.61 50.28 52.07 54.43 55.81 55.32 56.67 57.10 58.15 58.25
56.49 57.16 58.56 60.37 62.13 62.37 63.16 63.92 64.41 64.58 64.24 64.51 64.40 63.76 62.12 61.20 58.76 56.56 55.59 55.68 55.42 53.87 51.33 49.71 48.69 48.63 47.34 46.63 46.12 45.42 45.55 45.89 46.43 46.67 48.95 51.97 53.25 51.97 55.39 57.95 58.46 57.87 57.64
55.34 55.85 56.83 57.47 59.47 61.32 61.92 62.66 63.25 63.80 63.53 63.76 63.78 62.76 61.20 59.96 57.89 55.52 54.05 53.95 53.89 50.85 48.79 47.93 47.00 46.35 46.38 45.71 45.17 44.88 45.35 45.73 45.50 46.13 47.41 51.07 52.81 52.43 50.44 51.25 52.92 53.35 53.44
54.50 54.35 55.11 56.42 57.36 58.93 60.51 61.62 61.98 62.54 62.35 62.45 62.65 61.82 60.64 58.66 56.81 54.33 53.02 52.84 51.74 48.35 47.28 46.75 46.00 46.00 45.37 45.26 44.99 44.82 45.14 45.13 44.92 45.01 46.52 48.52 47.15 48.87 48.51 45.42 46.56 48.18 49.21
53.14 53.66 54.02 54.43 54.82 56.26 57.94 59.56 60.59 60.86 61.18 61.44 61.01 60.45 59.77 58.01 55.86 53.60 52.09 51.29 49.40 47.17 46.25 46.31 45.62 46.02 45.80 45.05 41.72 42.73 44.14 44.93 44.56 44.90 44.60 44.17 44.21 44.29 45.24 44.84 45.97 47.00 49.11
49.95 49.93 50.90 51.61 53.02 53.33 54.77 55.77 56.82 57.35 58.82 58.95 59.53 59.46 58.74 57.01 55.19 52.92 50.97 49.98 47.92 46.22 45.80 45.98 45.48 44.40 44.68 44.21 42.21 41.83 41.79 42.55 42.77 43.46 43.95 43.24 42.01 42.36 42.87 43.58 44.42 46.86 48.10
46.73 47.36 48.18 48.91 50.63 51.66 52.55 54.97 55.30 55.89 57.03 57.58 57.81 57.74 57.52 56.23 54.32 51.98 50.24 48.72 47.14 45.55 45.46 45.13 44.47 42.69 43.90 43.33 42.42 41.86 37.86 38.37 40.90 41.88 42.36 41.71 41.01 41.34 40.72 41.21 42.39 43.45 47.11
44.65 45.38 46.42 47.43 48.57 49.70 50.48 52.09 52.85 53.46 51.76 52.62 53.84 54.82 54.90 54.80 53.72 51.81 49.86 48.64 46.82 45.53 44.38 44.48 44.19 42.88 41.16 42.13 44.82 44.44 40.67 39.88 38.05 40.38 40.14 40.33 39.78 39.94 40.04 39.92 40.46 41.73 45.17
43.97 45.27 45.42 45.86 46.38 47.18 48.87 49.50 49.40 49.38 47.76 49.83 50.29 52.07 52.25 52.65 51.94 51.44 49.66 48.75 47.08 45.41 44.73 44.25 44.14 43.56 43.33 39.61 41.36 42.50 43.16 43.92 39.45 34.03 38.91 39.08 39.05 38.81 39.28 39.39 39.29 40.10 43.72
43.80 43.85 45.10 44.22 44.31 45.39 46.43 47.12 47.20 46.90 47.96 49.12 49.03 48.26 49.71 50.08 49.76 50.09 49.48 48.43 46.90 45.35 44.58 43.95 42.78 42.77 43.44 42.28 40.23 40.15 39.86 40.66 42.11 41.42 35.10 35.50 37.98 38.41 38.94 38.81 39.10 39.15 41.66
43.62 43.24 43.32 43.01 42.63 43.58 44.02 44.61 44.54 44.58 45.05 45.55 46.77 46.17 47.24 47.30 47.46 47.42 48.00 47.61 46.77 45.42 44.07 43.78 42.91 42.30 42.29 42.86 41.85 41.91 39.95 38.85 37.89 39.29 39.54 36.54 35.22 36.59 37.94 37.87 38.20 38.63 39.89

GFSSE_sfc_wetblb_024.txt.gz
Wetbulb
64.87 69.23 72.56 73.69 73.21 73.25 73.23 72.89 72.93 73.09 72.50 71.73 71.79 71.98 71.84 71.81 71.95 73.36 73.69 73.03 72.42 72.03 71.99 71.59 71.12 71.07 70.26 69.53 69.14 68.36 68.82 69.28 69.73 71.42 73.38 72.98 72.20 71.89 71.79 72.54 72.39 72.36 73.25
66.43 69.42 71.83 73.42 73.49 73.75 73.54 73.17 73.00 73.14 73.03 72.32 71.96 71.81 71.85 71.88 71.99 72.70 72.35 72.37 71.57 70.91 70.60 70.33 70.23 69.79 68.81 68.65 67.34 66.78 66.34 66.12 66.41 66.97 70.51 72.60 72.40 71.25 70.78 71.62 71.70 71.59 72.98
66.37 69.66 71.56 72.90 73.58 73.61 73.14 72.90 73.05 73.15 72.52 72.17 72.04 72.17 72.40 71.89 72.12 72.20 71.95 71.63 70.94 70.42 69.39 68.93 67.80 67.85 67.10 65.84 65.65 65.18 64.76 64.29 64.21 65.04 66.61 68.15 69.89 71.66 70.44 70.55 71.24 70.85 71.58
66.18 69.67 70.86 71.94 73.27 73.43 72.95 72.83 72.74 72.78 72.94 72.40 72.79 72.54 72.05 71.48 71.35 71.38 71.29 70.76 69.99 69.19 68.54 67.95 67.06 66.35 64.68 64.33 63.79 63.23 62.92 62.37 62.74 64.39 63.14 66.24 69.65 71.79 70.93 69.93 70.00 70.32 70.53
64.30 69.91 70.79 71.60 73.27 73.24 72.97 72.74 72.51 72.52 72.88 73.36 72.76 72.33 71.75 71.16 70.45 69.27 68.72 68.41 68.98 67.87 66.86 65.86 65.15 63.77 63.16 61.83 61.34 60.75 60.13 59.60 61.77 61.59 62.86 63.34 67.91 70.06 71.20 70.12 69.65 69.61 70.19
63.70 69.23 69.90 71.62 73.23 73.28 73.03 72.79 72.44 72.33 72.65 73.03 72.96 72.25 71.71 70.75 68.93 67.10 66.51 68.05 67.93 66.80 65.38 64.22 63.42 62.21 60.96 59.73 58.87 58.01 57.34 58.21 60.76 57.89 60.53 65.72 65.46 68.73 69.90 70.01 69.85 69.83 69.73
62.60 66.47 70.00 71.10 72.26 73.01 72.99 72.82 72.40 72.20 72.35 72.85 72.70 72.24 71.57 69.81 67.80 66.03 65.75 66.61 66.44 65.43 63.87 63.06 62.23 60.59 59.46 58.25 56.86 55.62 55.04 57.01 52.81 54.95 59.02 60.85 62.98 67.28 67.14 68.01 68.13 68.34 68.38
61.92 65.18 69.67 68.65 70.06 71.45 72.18 72.27 72.06 72.02 72.05 72.75 72.15 71.73 70.87 69.78 68.80 66.00 65.23 65.38 65.30 63.72 62.57 62.51 60.12 59.48 58.51 57.09 55.27 54.18 54.23 56.11 54.03 53.51 57.44 57.55 63.58 64.51 64.93 65.30 65.67 66.52 66.77
62.53 63.60 65.29 68.68 68.59 67.76 69.52 70.33 70.84 71.32 71.45 71.90 71.39 70.13 69.31 68.57 67.81 66.38 65.12 64.81 64.01 62.55 62.07 61.43 59.67 58.75 57.59 56.04 53.98 52.15 52.77 55.50 49.15 50.60 55.69 54.83 60.73 61.76 62.14 62.81 63.62 64.29 64.76
61.88 62.88 63.41 65.83 67.99 68.42 68.51 66.89 68.10 69.33 69.80 70.25 68.67 66.77 66.19 65.41 65.09 64.84 63.30 64.31 63.03 61.86 61.69 60.53 59.36 58.18 56.44 54.10 51.74 49.69 50.63 53.35 46.84 48.45 51.86 53.46 59.23 59.95 60.16 60.98 61.67 62.30 62.72
60.68 62.15 63.30 63.72 65.58 66.61 67.61 67.28 65.68 66.91 67.47 66.71 65.17 63.44 62.29 62.38 62.09 61.22 60.57 62.52 62.67 62.13 60.85 59.85 58.56 57.22 54.66 51.72 49.20 48.02 50.71 44.46 44.97 46.30 49.53 55.46 56.74 57.92 58.45 59.34 59.70 60.43 61.04
58.00 60.42 62.47 63.13 63.96 64.97 67.04 66.31 66.98 67.05 66.51 65.64 63.87 62.14 62.38 61.62 61.05 60.89 58.21 60.71 61.97 61.40 60.90 59.32 57.80 55.40 52.40 45.13 43.41 48.31 44.07 43.91 43.47 44.50 48.35 54.99 55.66 56.53 57.64 57.92 58.82 59.85 60.87
57.83 60.07 61.64 62.44 63.39 63.71 64.48 63.90 66.82 66.81 66.98 65.64 64.94 63.94 63.02 61.33 59.51 56.95 55.06 56.09 55.84 56.18 53.89 54.38 51.79 48.06 45.52 44.14 43.42 42.87 43.24 42.65 41.86 44.50 48.83 53.19 56.45 56.35 57.08 58.54 59.57 59.36 58.85
52.77 57.39 60.04 61.69 62.41 63.01 63.43 62.88 63.25 64.25 63.85 65.35 65.46 63.63 63.39 61.88 57.94 54.96 54.39 54.06 54.41 52.28 51.07 49.98 46.77 44.93 44.20 44.23 43.83 42.93 42.78 41.72 41.61 43.44 47.44 52.72 55.69 56.34 57.92 58.15 58.77 59.29 59.51
51.79 53.11 57.54 60.35 60.83 62.14 62.74 62.51 62.23 62.37 63.60 63.51 64.79 63.65 62.13 60.67 56.71 54.48 53.17 53.49 54.19 52.06 50.50 48.01 44.43 43.96 43.08 42.85 42.97 42.70 42.26 42.07 42.04 42.91 45.51 52.72 56.28 56.58 57.48 58.42 59.03 59.55 60.30
51.82 52.35 54.48 58.98 60.33 60.93 61.31 61.70 61.77 61.53 61.72 63.47 63.96 62.00 61.18 60.02 56.20 53.61 51.81 52.65 53.11 51.05 49.11 45.57 43.74 42.65 41.99 41.96 41.72 42.15 41.40 41.36 41.99 42.54 45.60 49.31 55.13 56.87 56.41 57.82 58.28 59.42 58.95
50.74 52.03 53.47 55.31 58.90 58.97 59.66 60.61 61.10 60.84 61.14 60.87 61.29 60.82 60.30 58.63 55.93 53.04 50.97 51.43 51.45 49.66 47.07 43.75 42.80 42.48 41.27 41.86 40.47 40.97 40.98 41.31 41.59 42.44 44.05 47.84 49.37 53.20 55.84 58.60 59.34 58.92 58.01
49.50 50.26 52.53 54.25 55.12 57.61 57.77 58.60 60.07 59.86 59.67 59.46 60.33 59.62 59.32 58.34 55.70 52.06 50.16 50.21 49.93 47.36 43.89 42.03 40.79 40.30 39.64 39.26 38.34 38.46 39.28 40.60 40.84 41.56 42.44 45.64 48.35 47.92 49.62 52.24 54.01 54.95 54.40
47.59 48.42 48.89 51.18 52.63 54.45 56.65 57.16 57.96 58.97 58.50 58.53 58.69 58.64 57.65 57.31 55.38 51.38 49.06 49.01 48.18 44.55 41.92 41.74 39.79 39.54 38.25 38.28 38.94 37.82 38.32 38.49 39.33 41.69 41.67 44.06 42.16 43.87 43.59 47.26 48.48 49.54 50.94
45.64 46.25 46.76 48.26 49.26 52.21 53.12 54.06 54.88 56.14 56.89 57.20 57.11 57.27 57.74 56.03 54.59 49.94 47.71 47.59 45.84 42.28 40.69 40.21 39.04 39.05 38.60 38.43 39.67 38.85 37.69 38.24 38.05 38.16 40.20 40.94 39.68 39.85 40.58 39.76 40.04 43.75 50.01
43.92 44.41 44.91 45.17 46.18 47.97 49.01 49.87 51.03 52.15 53.93 54.68 55.39 56.16 56.50 54.95 53.14 49.57 46.54 45.72 43.43 42.07 41.18 40.06 38.90 38.27 37.88 37.12 36.09 35.31 35.73 37.01 37.04 37.60 38.07 37.18 37.60 38.49 37.75 38.40 38.45 41.60 44.33
41.68 42.47 43.43 44.40 44.91 46.11 46.65 48.86 49.26 49.66 50.15 52.61 53.79 53.98 55.39 54.45 52.62 49.63 46.39 44.32 42.30 40.37 39.75 39.69 38.77 37.31 37.34 37.68 35.12 33.74 30.50 32.84 35.14 36.90 36.83 37.40 35.71 36.54 36.70 37.98 37.38 39.24 41.97
40.30 40.69 41.82 42.65 43.54 44.82 45.34 46.78 47.10 47.53 45.93 45.54 48.08 49.25 51.09 53.01 51.94 50.48 46.93 44.27 42.33 40.56 40.10 39.35 38.84 38.79 35.33 36.09 37.94 36.32 32.00 31.06 31.28 34.19 34.73 35.53 34.83 34.55 34.79 35.65 37.08 38.29 40.92
39.60 40.49 40.94 41.34 41.84 43.52 43.80 44.22 43.58 43.36 42.34 43.29 44.86 46.49 47.67 49.03 49.07 49.54 48.00 44.83 42.54 40.82 39.33 38.80 39.72 39.44 36.60 36.21 34.82 38.39 35.94 35.27 31.45 28.16 32.68 33.71 33.77 34.60 33.72 34.04 34.79 36.59 39.34
39.58 38.88 38.85 39.84 40.62 40.84 40.54 41.03 40.70 40.67 41.47 42.38 42.51 41.60 42.89 44.98 46.03 46.52 46.19 44.72 43.11 41.22 39.00 38.53 37.45 37.02 38.22 36.30 36.82 33.44 33.30 33.65 34.42 31.08 27.48 29.50 32.15 32.87 33.83 33.86 33.94 34.54 38.35
38.00 37.44 37.53 37.88 38.66 39.86 39.59 38.92 38.14 37.74 38.26 38.61 39.25 39.23 40.33 41.76 42.58 43.56 44.05 43.74 43.28 41.31 39.03 38.16 37.68 37.14 36.47 36.60 36.68 34.36 33.88 32.89 31.63 31.93 30.48 28.26 28.77 30.48 32.51 33.52 33.58 34.05 35.70

GFSSE_sfc_wetblb_027.txt.gz
Wetbulb
65.66 69.73 72.96 73.90 73.70 73.78 74.27 74.05 73.60 73.05 72.52 72.26 72.44 72.22 72.02 72.23 72.77 73.93 73.60 72.76 72.58 72.44 71.92 71.29 70.76 70.33 69.63 69.08 68.53 68.58 69.07 69.52 70.38 72.92 73.09 72.35 72.04 72.11 72.40 72.57 72.48 72.34 73.38
66.89 70.56 72.20 73.49 73.99 74.09 73.86 73.64 73.44 72.99 72.51 71.90 72.01 71.89 71.83 71.81 72.73 72.93 72.58 72.41 71.41 71.02 70.84 70.73 70.37 69.21 68.71 67.66 67.21 66.72 66.73 66.86 67.18 68.10 71.95 72.46 71.96 70.79 70.98 71.44 71.93 71.86 73.09
67.75 70.18 71.79 72.72 73.61 73.72 73.45 73.20 73.13 73.29 72.55 72.22 71.99 71.93 71.88 71.97 72.18 72.33 71.74 71.78 70.87 69.98 69.56 68.87 68.44 67.91 66.97 65.99 65.62 65.64 65.34 65.02 65.24 65.83 66.45 65.58 69.53 70.80 70.26 70.68 71.19 71.19 72.16
67.98 69.81 71.10 71.64 73.29 73.59 73.28 73.03 72.95 73.35 73.21 72.36 72.17 72.20 72.26 72.08 72.14 71.72 71.57 70.95 70.10 69.08 68.91 68.21 67.81 66.24 65.11 64.16 63.74 63.60 63.20 63.26 63.97 64.99 63.40 66.87 70.34 71.24 70.37 69.81 70.49 70.34 70.55
67.60 69.20 70.98 71.50 73.29 73.31 72.90 72.83 72.88 72.88 73.06 73.06 72.88 72.63 72.05 71.59 71.48 70.46 70.23 70.07 69.46 68.29 67.40 66.63 65.97 64.30 63.11 61.90 61.25 60.88 60.74 61.29 63.38 61.94 63.95 66.10 67.38 70.33 70.88 69.84 69.12 69.64 70.09
66.90 68.76 70.20 71.82 73.30 73.24 72.79 72.76 72.62 72.71 73.05 73.41 73.28 72.63 71.72 71.12 69.99 69.05 68.68 69.25 68.41 67.41 66.22 65.07 64.21 62.69 60.94 59.67 58.53 58.08 58.34 59.68 59.92 58.54 61.93 64.81 65.48 69.00 70.30 70.08 69.59 69.45 69.45
62.58 67.67 69.95 71.38 72.51 72.84 72.77 72.67 72.44 72.48 72.81 73.08 73.08 72.80 72.16 70.53 68.41 67.22 66.81 67.62 67.80 66.34 65.14 64.14 62.65 60.67 59.23 57.93 56.34 56.01 56.79 58.44 53.05 57.29 58.87 60.14 63.97 67.36 67.21 68.36 68.31 68.25 68.29
61.37 67.86 69.60 68.83 70.19 71.47 72.15 72.22 71.99 71.98 72.13 72.56 72.71 72.49 71.89 70.19 67.81 66.60 66.27 66.40 66.08 65.34 63.84 63.38 61.08 59.61 58.34 56.64 55.34 55.42 55.78 57.44 53.11 55.22 55.84 56.36 64.46 65.12 65.22 65.57 66.06 66.84 66.93
60.74 66.69 68.44 69.24 69.17 68.42 69.78 70.17 70.74 71.20 71.33 71.78 71.81 71.51 70.00 69.06 68.28 66.44 66.10 65.65 65.60 64.11 63.21 61.95 60.20 59.09 57.66 55.61 54.00 53.72 55.38 56.71 48.13 52.65 54.90 54.64 61.92 62.06 62.14 62.95 63.90 64.60 65.03
59.39 61.62 66.24 67.49 68.29 68.53 68.90 67.15 68.16 69.15 69.51 70.11 69.69 68.17 66.73 66.49 66.21 65.43 64.05 65.34 64.56 63.09 62.64 61.00 59.72 58.74 56.87 54.31 52.10 51.07 53.36 52.88 45.35 50.13 51.47 54.17 60.03 60.27 59.99 61.01 61.85 62.51 63.02
58.38 60.08 61.23 65.16 66.26 67.25 66.80 66.57 65.02 66.77 67.31 67.40 66.67 64.39 63.46 62.72 62.45 61.79 61.14 63.68 63.90 62.81 62.01 60.60 59.20 57.75 55.01 51.74 49.52 49.96 50.56 42.59 44.17 47.72 49.62 56.40 56.76 58.15 58.73 59.32 59.90 60.68 61.30
54.96 58.03 60.66 61.56 64.59 65.61 68.12 66.82 66.14 66.81 67.04 66.83 65.43 64.40 63.48 61.07 60.30 60.27 58.60 61.10 62.36 62.20 61.85 60.29 58.79 56.38 51.19 43.24 41.81 47.53 42.18 41.97 41.89 45.72 49.80 56.05 55.84 56.95 57.75 58.02 59.08 60.21 61.03
54.50 56.67 59.92 61.30 62.16 63.82 65.24 64.64 66.26 67.49 66.28 64.76 64.55 63.04 62.12 60.62 59.24 58.04 56.29 57.13 56.51 57.12 55.39 56.09 53.51 48.73 46.64 44.01 41.49 41.45 41.26 40.88 40.64 43.67 50.13 54.35 56.82 56.58 57.31 58.99 60.11 59.86 59.14
50.70 56.33 58.53 60.61 61.70 62.22 63.97 63.38 65.55 66.23 65.78 65.34 64.69 63.24 62.61 61.34 59.36 54.97 54.22 53.85 53.53 52.12 50.89 49.25 47.82 45.25 43.02 42.44 42.03 41.32 40.71 40.17 40.15 42.96 48.23 53.82 56.01 56.81 58.87 58.73 58.97 59.53 59.90
48.83 51.05 56.61 59.41 61.06 62.43 61.77 61.41 63.52 64.87 64.56 63.65 64.54 64.06 63.39 61.72 59.15 55.12 52.64 53.10 52.02 50.75 49.45 47.82 45.90 42.68 41.63 41.56 41.60 41.24 40.72 40.40 40.37 43.92 45.12 53.75 56.77 57.26 58.42 59.31 59.60 59.87 60.27
47.61 49.04 51.77 58.54 60.46 60.92 62.18 61.01 60.71 61.10 62.02 61.84 61.12 62.82 63.44 61.66 58.80 55.04 52.34 52.56 52.36 51.05 48.88 46.75 43.26 41.36 40.47 40.30 40.47 40.65 40.04 39.86 40.72 42.18 45.71 49.68 56.02 57.44 57.75 59.23 60.39 60.81 60.52
45.82 47.12 49.25 55.36 57.78 59.23 59.66 60.31 59.97 60.23 60.27 60.74 61.39 60.34 60.63 60.69 57.89 54.27 52.03 51.73 52.36 50.30 47.82 43.74 41.79 40.91 39.57 39.95 39.13 39.73 39.69 39.85 40.25 41.44 44.99 47.67 48.60 54.56 57.52 57.75 58.65 60.29 59.96
44.28 44.48 46.28 49.34 56.51 57.43 57.95 58.51 59.77 59.32 59.04 58.88 59.53 59.49 59.03 59.39 56.94 53.04 51.01 50.43 50.51 48.47 45.34 41.81 40.43 39.34 38.48 37.99 36.91 37.21 38.01 39.18 39.59 40.64 41.33 46.07 46.71 46.68 51.14 54.53 56.95 56.73 56.39
43.12 43.67 44.43 45.73 46.60 54.54 55.80 56.70 57.63 58.46 57.82 57.97 58.28 58.87 59.42 58.06 55.81 53.50 50.09 49.53 48.86 46.06 42.80 41.93 38.50 38.55 36.59 36.44 36.92 36.15 36.61 37.20 38.12 40.42 40.12 43.17 44.31 44.27 43.28 49.11 49.74 51.15 52.84
41.86 42.79 43.46 44.84 45.40 49.15 51.60 52.98 53.85 54.90 55.51 56.01 56.37 58.60 58.57 58.42 54.95 52.27 49.87 48.64 46.90 43.72 40.66 39.46 38.41 37.27 36.71 36.40 38.70 36.80 35.67 36.59 36.88 36.50 39.10 40.59 39.24 41.05 41.02 39.50 40.37 43.72 50.74
40.60 41.02 41.77 42.58 43.61 44.94 45.96 48.28 49.66 50.77 52.53 53.40 56.14 57.34 57.42 57.09 55.57 51.06 49.28 48.43 44.61 43.53 41.29 39.30 37.55 36.97 35.97 35.23 34.63 33.76 34.16 35.42 35.47 35.94 37.37 36.94 37.23 37.61 37.34 37.62 38.39 40.58 43.44
38.85 39.33 40.09 41.01 42.18 43.43 44.93 45.08 46.86 46.28 46.09 49.13 51.91 52.87 55.39 55.17 54.59 51.23 48.14 46.31 43.42 40.51 39.26 38.54 37.72 35.78 36.06 35.61 33.53 31.63 30.02 32.22 33.87 35.27 35.66 36.10 35.07 35.83 36.18 37.46 36.98 39.20 41.28
37.71 37.92 39.29 39.81 40.31 40.86 42.60 44.09 44.20 44.77 44.06 43.52 45.36 47.87 50.67 52.74 52.27 51.18 48.46 46.15 44.06 43.05 41.14 38.91 37.72 37.16 35.28 35.24 34.91 34.37 29.16 29.34 29.74 32.45 33.62 34.59 34.25 33.47 34.15 35.20 36.10 37.41 40.98
36.17 37.30 38.18 39.26 39.43 40.00 39.83 39.73 39.27 39.48 39.06 40.15 41.20 41.96 44.18 46.88 47.95 49.86 48.78 46.85 44.32 42.58 41.05 38.60 38.58 37.53 35.83 33.54 33.51 36.74 34.58 33.40 29.70 28.74 31.45 32.62 33.10 33.52 32.95 32.94 34.00 35.66 39.43
35.66 34.88 35.49 37.01 37.89 38.63 38.46 37.90 37.43 36.86 37.81 38.52 39.29 39.20 40.14 42.58 44.27 45.12 45.31 46.69 44.74 42.92 40.84 39.49 38.53 36.85 35.49 35.62 34.52 32.43 32.32 32.72 32.75 29.24 27.38 28.71 31.12 31.56 33.14 33.00 33.17 33.75 37.14
34.52 33.93 34.68 34.80 35.29 36.43 37.14 36.79 36.09 35.27 35.47 35.49 35.73 36.02 37.01 38.26 40.32 41.29 42.79 42.37 42.33 43.49 41.21 39.75 39.32 38.22 38.25 36.35 34.81 33.58 33.41 33.21 31.67 31.28 28.46 27.24 27.92 29.64 31.16 32.49 32.54 33.45 34.65

GFSSE_sfc_wetblb_030.txt.gz
Wetbulb
64.52 68.56 73.05 74.18 73.98 74.54 74.44 74.04 73.54 73.38 72.79 72.49 72.72 72.38 72.48 72.57 73.72 73.49 73.29 72.79 72.83 72.21 71.63 70.78 70.34 69.48 69.18 68.70 68.65 69.13 69.76 70.12 71.69 72.95 72.71 72.35 72.26 72.46 72.21 72.40 72.41 72.00 73.06
65.84 69.97 72.26 73.72 74.35 74.56 74.56 74.01 73.35 73.01 72.53 72.41 72.29 71.88 72.11 72.59 73.28 72.93 72.42 71.87 71.40 70.55 70.54 70.39 69.86 69.09 68.04 67.40 66.86 67.04 67.66 67.92 68.05 68.46 70.83 71.97 71.38 70.88 71.10 71.46 72.19 71.81 72.64
67.22 70.49 71.79 72.88 73.97 74.13 73.91 73.63 73.14 72.78 72.01 72.07 71.87 71.64 71.64 72.13 72.65 72.53 71.97 71.27 70.60 70.09 69.58 69.13 68.94 67.81 66.60 66.12 65.75 65.75 65.65 65.60 65.68 66.05 66.70 65.81 68.43 70.32 70.46 70.54 71.06 71.58 71.65
67.85 70.00 71.24 71.67 73.53 73.83 73.49 73.27 73.11 73.07 72.69 72.07 71.90 71.85 71.65 71.79 72.25 71.60 71.57 70.76 69.92 69.06 68.83 68.20 67.94 66.07 65.33 64.34 64.16 63.92 63.58 63.76 64.13 65.67 65.38 67.89 69.47 70.61 70.14 70.36 70.33 70.25 70.21
67.47 69.54 70.91 71.28 73.31 73.59 73.28 72.97 72.97 73.21 73.23 72.82 71.97 72.05 72.16 72.05 71.81 71.46 70.79 70.14 69.44 68.60 67.69 67.04 65.79 64.47 62.73 62.20 61.68 61.61 61.58 62.36 63.84 65.74 65.44 65.95 67.27 70.13 70.12 69.35 69.05 69.43 69.78
66.95 68.94 69.98 71.62 73.31 73.46 73.00 72.94 72.77 73.08 73.16 72.98 73.18 72.67 71.96 71.48 70.86 70.21 69.86 69.44 68.40 67.35 66.53 65.68 64.32 62.64 60.64 59.63 58.65 58.76 60.15 61.65 62.98 60.99 61.83 65.26 65.45 69.51 69.88 69.78 69.20 69.10 69.19
65.65 67.40 69.57 71.24 72.47 72.85 72.74 72.78 72.72 72.62 72.86 73.09 73.12 72.93 72.10 71.10 69.89 68.89 68.63 68.74 68.25 66.88 65.47 64.57 62.69 60.73 58.86 57.58 56.11 57.02 58.52 59.53 57.60 57.98 58.91 61.34 64.28 67.39 67.18 68.92 68.74 68.46 68.22
65.03 66.47 69.16 68.76 70.06 71.30 71.93 72.11 72.11 72.24 72.53 72.74 72.61 72.12 71.96 70.53 68.71 67.69 67.22 67.23 66.70 65.88 64.66 63.64 61.24 59.58 57.88 55.98 55.57 56.38 57.60 57.28 55.82 55.28 55.40 56.99 65.15 65.88 65.95 65.93 66.68 67.02 67.13
61.70 66.12 67.60 69.20 69.23 68.31 69.55 69.99 70.66 71.26 71.52 71.84 72.11 71.69 70.92 69.48 68.33 67.15 67.18 66.61 65.65 65.17 63.93 62.37 60.09 58.68 57.13 55.08 54.51 55.19 57.60 55.71 51.30 52.33 54.87 54.92 62.85 62.61 62.78 63.38 64.34 65.01 65.07
58.17 65.17 66.25 67.19 68.25 69.39 69.66 67.23 68.01 68.97 69.40 69.79 69.79 68.74 67.21 66.71 66.41 65.73 64.57 65.82 65.50 64.60 63.49 61.69 59.79 58.50 56.71 53.91 52.25 53.33 54.18 52.28 48.87 49.74 51.80 54.64 60.88 60.45 60.38 61.25 62.20 62.89 63.28
57.20 59.64 64.35 66.36 67.29 67.75 67.74 67.48 66.10 66.82 67.21 67.21 66.96 65.24 63.98 64.50 63.51 62.43 61.96 64.60 65.28 63.92 63.04 61.30 59.81 58.26 55.35 51.57 50.83 52.01 48.53 42.52 46.37 46.85 49.59 56.71 57.37 58.47 58.77 59.08 60.08 60.81 61.50
53.80 56.94 60.43 63.85 65.88 66.27 68.33 66.79 67.47 67.86 68.27 67.96 66.38 65.05 65.47 63.04 60.85 60.86 59.43 62.17 63.46 62.53 63.10 61.27 59.64 57.12 50.07 41.26 40.99 46.74 40.84 40.81 43.73 44.94 49.54 56.22 56.12 57.75 58.49 58.52 59.32 60.31 60.96
51.68 54.91 58.55 61.67 64.17 65.12 66.42 66.61 66.28 67.45 66.92 65.69 64.25 63.57 63.84 62.10 60.32 58.43 57.11 58.03 57.23 57.91 56.85 57.61 55.25 49.01 43.74 42.07 40.35 40.45 39.99 39.62 41.67 42.76 49.56 54.81 57.02 57.33 57.64 58.66 60.26 60.68 60.39
48.06 52.59 55.98 59.49 61.72 63.36 64.58 64.60 65.93 66.91 66.39 66.05 63.26 61.82 62.49 61.42 59.96 58.16 56.04 54.80 54.32 53.53 52.30 50.82 49.14 46.73 43.25 42.05 40.95 40.20 39.64 39.16 40.63 41.85 46.43 54.02 56.19 57.93 59.08 60.09 59.46 59.19 59.68
44.04 45.31 50.21 57.20 60.29 62.06 62.07 62.48 64.24 65.55 65.15 65.01 64.41 61.75 62.80 61.51 60.28 58.45 56.50 54.45 52.71 51.21 50.00 48.35 47.31 44.27 41.14 40.32 40.30 40.07 39.42 39.09 39.76 43.18 44.53 53.08 56.22 57.85 59.37 59.52 60.07 60.18 60.24
43.82 43.95 45.09 54.51 59.25 60.41 61.93 60.74 63.14 64.53 65.06 63.87 63.23 62.26 62.16 62.16 60.40 57.68 55.43 52.79 51.47 50.69 49.03 47.99 46.45 41.82 39.97 39.45 39.66 39.58 39.17 38.87 39.43 42.67 44.96 48.52 55.62 57.21 58.80 59.78 60.32 60.69 61.87
42.44 43.25 44.04 46.19 56.35 58.54 60.54 60.04 59.97 61.50 61.01 61.65 60.82 60.53 60.73 61.00 60.81 57.32 54.90 53.40 52.61 50.44 48.68 46.61 43.71 40.36 38.67 38.54 38.12 38.76 38.59 38.62 39.01 40.83 44.89 47.20 48.27 54.97 58.14 59.41 60.59 61.18 60.55
41.32 41.95 43.72 45.73 48.27 55.85 57.16 58.18 59.07 58.93 58.74 59.27 59.57 59.54 59.27 59.42 59.71 56.32 54.79 54.01 53.49 51.59 48.10 44.68 41.34 39.07 37.85 36.95 35.94 36.46 36.87 37.91 38.66 39.56 41.85 46.10 46.38 47.65 52.12 55.65 59.50 60.28 60.18
40.08 40.95 42.21 44.09 44.49 51.37 55.29 56.37 57.01 57.07 56.91 57.18 57.89 60.37 60.25 59.97 58.04 56.57 54.86 53.71 52.37 51.15 45.93 44.26 39.22 38.87 36.96 36.01 36.16 35.34 35.38 36.15 37.07 39.25 38.84 43.91 45.26 45.12 44.74 50.52 51.17 52.75 55.61
39.30 40.13 40.95 42.63 43.36 45.27 49.96 52.14 52.95 54.14 54.58 55.03 56.72 59.08 59.34 58.63 56.24 54.90 53.21 51.84 51.05 48.90 43.34 40.48 39.26 37.19 36.88 36.23 37.77 36.10 34.20 35.38 35.77 35.79 37.27 41.48 41.25 42.97 42.56 41.25 41.25 44.14 51.03
38.57 38.99 39.27 39.75 40.48 43.02 43.24 45.92 47.85 48.92 49.36 53.13 54.69 56.23 57.88 57.77 55.25 53.98 52.63 51.54 48.83 47.88 46.39 42.36 38.04 37.19 35.48 34.94 34.00 33.22 33.29 34.40 34.71 34.75 35.99 37.85 37.72 38.38 39.10 38.95 38.70 40.35 43.49
36.48 37.70 38.43 38.73 38.89 39.95 41.78 42.15 44.16 43.77 43.59 45.05 47.52 49.72 51.10 54.52 55.10 52.87 51.47 50.19 48.66 45.15 43.01 41.04 39.77 35.61 35.92 35.00 33.21 30.87 30.20 32.31 33.35 34.41 34.65 36.39 35.90 35.75 36.21 37.02 36.88 38.87 40.39
34.09 34.91 37.11 37.89 38.24 38.24 39.34 40.75 41.26 41.42 41.15 41.22 41.38 42.86 45.28 48.14 49.73 50.65 50.16 47.79 46.14 44.81 43.43 41.63 39.97 39.26 37.01 34.54 33.98 33.63 27.94 28.76 29.12 31.31 32.59 33.94 34.36 33.41 34.10 34.88 35.93 36.57 38.75
32.67 33.74 35.38 36.52 36.96 37.73 37.77 37.42 36.65 36.35 35.73 36.23 37.42 38.27 39.87 41.38 41.82 43.77 46.27 47.28 45.52 43.77 42.72 41.43 40.85 39.56 38.52 36.70 33.59 35.39 33.28 31.89 29.34 28.99 30.75 31.72 33.03 33.47 32.64 33.00 33.72 34.87 36.56
32.86 32.14 33.08 34.68 35.04 35.44 35.56 35.96 35.58 34.71 35.18 35.57 35.78 35.63 36.19 37.22 37.73 37.36 38.52 41.15 42.91 44.39 42.26 40.69 39.68 38.38 38.33 38.29 35.74 32.66 31.33 32.12 31.39 29.37 28.94 28.87 30.46 31.97 33.27 33.87 33.42 33.57 34.71
31.01 31.00 31.58 32.81 33.00 33.73 33.50 33.02 32.48 32.16 32.36 31.94 32.63 33.00 33.84 34.80 35.46 35.39 35.75 35.83 37.05 38.23 39.79 41.25 40.04 38.96 38.50 38.37 37.17 36.09 35.52 32.56 31.19 30.84 28.12 28.18 28.22 30.35 31.67 32.15 32.52 33.82 33.51

GFSSE_sfc_wetblb_033.txt.gz
Wetbulb
63.92 67.11 73.00 74.26 74.10 74.09 73.77 73.78 73.23 73.12 72.53 72.58 72.34 72.60 73.07 73.42 73.51 73.43 73.23 72.97 72.54 71.73 70.32 69.62 69.43 69.07 68.86 68.59 69.10 69.83 70.33 71.16 71.54 72.24 72.27 72.27 72.15 72.24 72.27 72.42 72.31 71.39 72.68
64.76 68.28 72.12 73.81 74.45 74.59 74.32 74.04 73.33 72.87 72.32 72.30 72.01 72.06 72.28 73.60 73.31 72.86 72.26 71.69 71.04 70.24 70.68 69.51 69.23 68.56 67.81 67.26 67.34 67.96 68.83 68.32 67.93 68.21 70.10 71.27 71.19 70.72 71.07 71.43 72.13 71.42 72.25
65.57 69.18 71.53 72.98 73.90 74.41 74.18 73.73 73.18 72.76 72.38 72.27 71.77 71.66 72.02 72.88 72.71 72.21 71.57 70.92 70.41 69.86 69.40 69.04 68.51 67.51 66.82 66.19 66.25 66.26 66.52 65.69 65.96 67.10 66.72 67.23 67.63 70.28 70.41 70.47 71.03 71.29 70.64
67.03 69.63 71.04 71.70 73.61 74.12 73.95 73.39 72.99 72.80 72.50 72.10 71.66 71.55 71.56 71.99 72.00 71.78 71.26 70.24 69.52 69.05 68.69 68.25 67.38 66.17 65.12 64.62 64.65 64.51 64.63 64.23 65.94 67.32 65.54 68.00 68.66 70.21 70.32 70.11 69.71 69.93 69.66
67.09 69.47 70.61 71.31 73.54 73.83 73.60 73.24 72.94 72.80 72.72 72.23 71.77 71.58 71.41 71.51 71.65 71.41 70.91 69.91 69.20 68.51 67.51 67.14 65.60 64.55 63.00 62.49 62.04 62.23 62.64 64.30 66.57 65.94 65.25 65.84 67.32 69.50 69.49 68.88 68.83 69.03 69.12
66.05 68.52 69.80 71.59 73.44 73.58 73.21 73.05 72.97 72.96 72.88 72.48 71.87 71.79 71.90 71.97 71.49 70.85 70.17 69.28 68.06 67.47 66.33 65.66 64.24 62.28 60.64 59.74 58.67 59.97 61.65 64.80 63.53 61.12 62.51 64.82 65.07 69.52 69.61 69.00 68.80 68.75 68.48
64.85 67.03 68.51 70.96 72.52 73.08 73.06 72.86 72.64 72.94 73.13 72.81 72.81 72.84 72.01 71.18 70.37 69.84 69.55 68.82 67.59 65.76 65.43 64.46 62.52 60.61 58.86 57.25 56.79 58.58 59.89 62.53 58.32 58.21 59.37 61.46 64.18 67.47 67.04 67.90 68.80 68.43 67.24
64.51 66.01 67.99 68.19 69.97 71.50 72.16 72.25 72.31 72.43 72.63 72.65 72.86 72.46 72.14 71.18 69.94 68.83 68.09 67.79 67.06 65.72 64.86 63.77 61.32 59.32 57.40 55.66 56.13 57.68 58.60 59.07 56.57 55.34 55.68 57.42 65.17 65.86 66.16 66.35 66.65 67.16 67.12
63.81 64.97 66.62 68.64 68.68 67.80 69.18 69.09 70.68 71.45 71.68 71.97 72.01 71.54 70.80 70.21 69.23 68.44 67.88 67.71 66.20 65.46 64.65 63.36 60.37 58.45 56.58 54.62 55.21 57.30 56.95 56.88 51.76 52.50 54.93 54.79 62.85 62.69 63.19 63.80 64.67 65.00 64.96
58.94 64.23 65.29 67.02 68.93 68.68 68.46 66.57 67.58 68.97 69.61 70.16 69.76 68.41 67.51 67.00 66.88 66.20 65.06 66.22 65.86 64.97 64.37 62.72 59.92 58.22 56.43 53.72 52.82 54.54 54.71 54.38 48.82 50.19 51.91 54.28 61.32 60.65 60.91 61.66 62.55 63.22 63.43
56.27 60.08 63.60 65.20 67.28 69.39 69.69 67.65 65.51 66.44 66.96 66.90 66.56 65.28 63.82 64.73 63.86 62.85 62.37 64.69 66.21 65.33 63.82 62.42 59.92 58.38 55.48 51.87 51.19 52.16 48.51 44.59 45.70 46.69 49.28 56.25 57.92 58.77 58.81 59.15 60.34 61.21 61.82
51.77 55.28 60.15 63.41 65.51 67.46 68.13 68.32 68.03 68.36 68.26 67.85 67.28 65.59 64.76 64.74 63.22 61.36 59.86 62.51 64.26 63.22 63.80 62.15 60.07 58.15 49.74 40.49 40.26 45.67 39.97 41.40 43.41 44.25 47.73 56.41 56.59 58.11 58.60 58.64 59.19 59.93 60.54
48.56 51.54 56.45 60.65 63.25 66.17 67.23 67.43 67.18 65.34 66.21 66.83 66.44 65.64 64.06 63.24 61.52 60.59 59.62 59.17 58.30 58.23 57.23 58.26 55.11 49.28 41.74 38.90 39.19 39.51 39.04 38.87 41.45 42.06 47.48 54.59 57.40 57.70 58.05 58.06 59.11 60.14 60.42
42.55 44.06 46.10 55.28 60.77 62.47 64.72 66.52 66.56 66.49 64.72 65.05 64.29 63.68 63.02 61.70 60.56 59.36 58.49 57.83 56.39 54.45 53.29 52.03 50.12 47.84 43.77 41.75 40.69 39.49 38.73 38.26 39.97 40.83 43.40 52.64 55.28 58.40 58.69 59.91 60.39 60.07 59.29
41.48 42.32 42.95 44.28 57.02 61.18 61.40 61.91 64.87 65.56 66.17 65.70 64.71 62.97 60.46 60.89 60.49 59.05 57.91 56.91 56.07 54.30 51.44 49.72 48.19 46.86 42.23 39.97 39.51 39.00 38.53 38.36 38.92 41.56 42.30 50.89 54.89 57.87 59.90 60.30 59.99 60.18 60.54
41.33 41.69 42.98 44.13 49.18 58.55 60.84 59.92 62.75 64.80 64.75 64.16 63.77 63.58 60.64 59.50 58.80 59.08 57.41 56.18 55.07 53.75 50.71 49.31 47.65 45.49 40.88 38.87 38.93 38.89 38.38 38.02 38.15 40.98 42.55 46.86 54.33 56.92 59.24 59.92 60.58 60.74 60.89
39.90 41.12 42.33 44.82 47.23 56.27 58.28 58.58 59.44 63.44 63.43 63.01 63.13 61.97 59.91 59.95 60.12 59.18 57.24 55.37 55.01 53.02 50.21 47.90 45.99 42.73 39.57 38.27 37.48 37.86 37.74 37.70 37.77 38.63 42.35 45.55 47.64 52.57 57.21 59.33 60.25 61.24 61.66
38.92 39.63 41.80 44.07 44.71 53.13 56.38 57.35 58.25 58.62 58.84 59.50 60.14 61.12 60.90 60.75 60.29 58.02 56.23 55.01 54.87 52.85 51.63 49.33 46.35 41.84 39.51 37.27 35.92 35.93 35.90 36.59 37.42 37.96 40.47 44.13 45.97 47.52 50.47 55.95 58.22 60.44 61.23
38.23 38.85 40.01 41.73 42.79 46.33 53.32 55.34 56.15 56.11 57.21 58.17 59.34 60.34 60.63 60.36 60.06 58.20 56.51 55.08 53.63 52.83 51.04 48.95 43.88 43.05 38.77 36.83 36.38 35.26 34.81 34.91 36.01 37.88 37.52 39.47 44.48 45.74 45.43 49.74 51.36 51.97 57.71
37.73 38.52 39.11 40.42 41.01 44.07 47.02 50.52 50.01 49.13 50.69 53.06 53.02 54.82 58.32 58.89 57.73 56.67 55.62 54.26 53.15 51.80 48.62 45.84 44.15 40.32 37.73 37.22 37.62 36.14 33.74 34.21 34.83 34.85 35.56 38.28 41.78 43.92 43.79 43.59 42.85 44.83 50.12
36.46 37.12 37.45 37.82 38.63 40.92 41.92 43.34 44.81 42.80 43.30 43.88 46.46 47.69 50.36 52.74 54.95 54.54 54.24 53.23 51.62 50.70 49.11 46.36 42.00 40.96 38.85 37.77 34.93 33.89 33.65 34.10 34.00 34.40 34.58 35.53 38.29 39.69 41.15 41.58 40.50 41.02 42.94
33.84 35.52 36.42 36.87 37.20 38.27 39.49 39.87 41.63 40.74 40.58 40.69 42.40 43.15 43.75 45.36 47.43 49.72 49.64 48.60 48.50 47.41 45.35 43.67 41.93 39.72 39.36 37.87 36.62 33.21 31.54 32.99 32.93 33.96 33.68 34.76 35.67 36.89 36.81 38.20 38.10 38.77 39.67
32.03 32.66 34.87 35.62 36.38 36.93 38.12 38.82 38.99 38.81 37.75 37.35 37.52 38.57 39.08 39.98 39.80 41.73 44.57 46.76 45.93 45.43 44.79 43.53 41.80 40.60 39.98 37.87 36.75 37.47 32.69 28.97 28.50 31.18 31.94 32.44 33.49 34.09 34.28 35.02 35.87 36.46 37.33
30.54 31.51 33.34 33.98 33.96 35.18 36.53 36.26 35.24 34.02 32.90 33.44 34.63 35.42 36.23 36.69 36.05 36.74 37.61 39.36 42.32 43.86 43.07 42.12 41.93 40.30 39.22 38.57 36.81 36.83 34.98 34.28 31.72 30.50 30.89 31.21 32.04 33.59 33.02 33.29 33.82 34.45 35.33
30.12 29.31 30.46 32.27 32.33 32.24 32.49 33.00 32.34 30.81 31.69 31.53 31.85 31.76 32.64 33.77 33.82 33.72 34.66 35.18 35.63 36.71 37.62 39.76 40.36 39.39 38.75 38.05 37.28 35.99 34.44 34.44 33.44 31.88 32.16 29.91 30.34 31.68 33.07 33.78 34.06 33.27 34.09
28.72 28.90 29.46 30.50 30.51 30.87 30.69 30.47 29.67 28.89 28.86 28.87 28.90 28.99 29.83 30.97 31.32 31.39 31.91 32.13 33.00 33.53 33.72 34.75 36.19 37.06 38.33 38.58 37.79 36.85 35.56 34.93 33.66 33.11 31.44 32.10 30.82 31.26 31.32 31.73 32.02 34.23 34.08

GFSSE_sfc_wetblb_036.txt.gz
Wetbulb
63.86 65.86 73.02 73.98 73.86 74.09 73.74 73.33 72.96 73.07 72.76 72.57 72.92 73.50 73.40 73.22 73.25 73.27 73.11 72.68 72.51 71.16 70.10 69.98 69.51 69.39 68.93 69.50 69.93 70.08 71.16 71.07 71.34 72.00 72.15 72.14 72.01 72.23 72.64 72.08 72.13 71.16 72.61
64.13 66.65 72.06 73.77 74.23 74.31 74.09 73.89 73.16 72.96 72.55 72.42 72.30 72.64 73.51 73.62 73.30 72.79 72.03 71.40 70.87 69.76 69.90 68.93 69.28 68.59 67.87 67.74 68.59 69.60 69.70 68.28 68.10 68.91 70.33 70.69 71.13 70.81 71.35 71.69 71.99 70.84 72.19
64.80 68.18 71.23 73.03 74.18 74.24 74.16 73.84 73.35 72.76 72.36 72.23 71.91 72.14 72.93 72.90 72.73 72.07 71.31 70.74 70.32 69.57 69.08 68.53 68.24 67.83 66.73 66.58 66.59 66.95 66.88 66.42 67.45 67.80 69.22 66.90 67.71 70.48 70.56 70.39 70.69 70.15 70.47
65.49 69.10 70.45 71.66 73.66 74.35 74.15 73.54 73.15 72.89 72.47 72.00 71.44 71.65 72.26 72.36 71.99 71.49 70.81 70.00 69.54 69.28 68.49 68.17 67.14 66.13 65.23 64.88 64.98 64.79 64.97 66.53 68.52 67.79 66.45 67.75 68.28 70.27 70.17 69.48 69.48 69.67 69.30
65.75 68.44 70.06 71.32 73.39 74.20 73.89 73.35 72.99 72.84 72.80 72.10 71.48 71.25 71.21 71.55 71.53 71.57 70.54 69.71 69.09 68.58 67.77 66.99 65.76 64.09 63.12 62.65 62.61 63.10 63.82 67.39 66.78 65.46 64.85 65.73 66.85 69.23 69.24 68.99 68.73 68.51 68.86
65.50 67.89 69.46 71.68 73.58 73.88 73.62 73.28 72.96 72.76 72.57 72.33 71.90 71.46 71.43 71.67 71.67 71.13 70.23 69.06 68.01 67.49 66.76 65.89 64.44 62.61 61.12 59.99 59.57 61.68 64.16 66.04 63.64 61.31 62.26 64.05 64.72 69.44 69.15 69.07 68.99 68.48 68.13
63.72 66.37 68.01 70.99 72.66 73.28 73.31 73.15 72.96 72.81 72.81 72.72 72.42 72.30 72.44 71.98 70.96 70.36 69.89 68.50 67.12 66.03 65.20 64.89 62.96 61.13 59.28 57.77 58.35 59.66 63.28 63.03 58.68 58.69 59.67 61.49 64.27 67.81 67.57 67.87 68.51 68.30 66.99
63.58 65.58 67.40 67.75 69.93 71.48 72.28 72.48 72.38 72.31 72.39 72.58 72.58 72.25 72.09 71.02 70.29 69.77 69.31 68.01 66.60 65.18 64.52 63.95 61.76 59.93 57.88 56.48 57.24 58.82 60.34 60.04 56.65 55.74 56.09 57.55 64.79 65.78 66.22 66.41 66.85 67.29 67.04
61.08 64.18 65.45 67.19 68.02 67.84 69.53 70.12 70.83 71.48 71.55 71.25 71.41 71.36 70.83 70.46 69.94 69.09 68.22 68.01 66.27 64.98 64.13 63.66 60.83 59.04 57.13 55.61 56.45 57.98 57.93 57.85 51.98 52.86 54.87 54.87 61.78 62.82 63.42 64.13 64.95 65.22 65.17
58.49 62.30 63.46 65.09 68.99 67.85 68.00 66.29 66.86 68.96 69.69 69.98 69.30 68.17 67.09 67.45 67.36 66.79 65.32 66.50 66.47 65.08 63.96 63.22 60.20 58.61 57.01 54.68 54.46 55.29 56.12 54.41 49.10 50.23 51.40 53.47 61.08 60.72 60.93 61.82 62.69 63.38 63.53
55.03 56.50 61.80 63.57 67.62 68.21 69.19 66.21 64.88 66.18 66.82 67.09 66.97 65.50 63.37 65.19 64.51 62.91 62.47 64.70 66.45 65.72 64.17 62.97 60.02 58.50 55.90 52.26 53.05 52.02 48.68 44.83 45.01 46.25 48.58 56.38 58.65 59.18 59.02 59.23 60.29 61.29 61.96
44.58 49.84 55.33 61.22 65.48 67.16 67.83 68.16 67.90 66.68 68.16 67.95 67.63 66.39 65.16 64.24 63.85 62.94 60.64 62.34 64.30 63.68 64.17 62.62 60.10 57.31 48.52 39.02 38.58 44.21 39.12 41.11 42.62 43.26 46.00 56.35 58.00 58.42 58.88 58.89 59.28 59.97 60.60
40.71 42.70 43.86 48.16 60.78 65.89 66.74 67.15 67.35 67.83 66.25 67.04 66.84 66.26 65.29 63.90 62.07 61.66 60.85 61.32 60.96 58.61 56.93 57.44 53.45 49.60 43.27 38.63 38.31 38.62 38.23 38.03 39.75 41.08 44.43 53.87 57.03 58.88 58.69 58.54 58.72 59.84 60.50
40.21 41.45 42.56 42.87 44.82 61.85 65.83 66.48 66.48 66.35 65.11 63.06 64.73 65.17 64.01 62.78 61.63 60.53 59.73 59.34 58.79 57.26 56.01 53.56 50.72 48.25 44.71 41.76 40.46 38.77 38.07 37.42 38.01 39.95 41.75 50.46 54.08 57.59 60.02 59.43 60.39 60.50 59.84
39.37 40.72 41.73 42.63 43.56 54.09 63.18 64.89 65.25 65.23 65.86 65.05 64.29 63.68 62.98 62.09 60.99 60.12 59.31 58.26 57.64 56.21 55.36 53.59 50.65 48.00 45.37 41.20 39.03 38.43 37.91 37.41 37.44 39.37 40.93 47.88 54.03 56.63 59.29 61.06 60.70 60.20 60.25
39.11 39.71 41.34 43.23 45.30 50.03 58.77 61.91 63.43 63.99 63.97 64.50 64.17 63.01 61.60 61.51 60.52 59.81 58.69 56.95 56.70 55.77 54.94 51.57 49.41 47.57 45.13 39.99 39.00 38.51 37.84 37.28 37.16 37.55 40.61 43.23 51.66 55.42 58.32 61.14 60.65 61.09 61.09
38.07 39.22 40.45 43.29 45.87 53.92 56.98 58.30 61.52 62.97 62.86 62.73 62.81 62.85 62.16 61.41 60.70 59.30 57.71 56.89 56.91 55.30 53.27 51.13 49.29 47.15 44.26 39.81 38.19 37.65 37.30 37.15 36.94 37.17 38.35 42.27 45.70 50.49 54.29 58.91 60.71 60.90 61.69
37.24 37.94 40.08 42.49 44.86 53.04 55.80 57.00 58.50 58.51 58.55 58.86 59.96 60.93 61.11 61.13 61.01 59.52 58.17 56.84 56.34 54.53 52.80 50.74 49.14 47.10 45.12 42.18 38.19 36.89 35.67 35.76 36.38 36.77 37.25 40.13 43.68 45.62 49.02 53.68 56.85 58.97 61.36
36.29 37.08 38.54 40.34 41.83 48.28 51.26 51.82 51.26 50.94 51.07 50.94 51.58 53.16 55.84 57.01 58.51 58.99 57.72 57.35 56.00 53.93 51.81 50.73 47.78 46.78 45.00 42.72 40.48 37.06 35.48 34.75 35.17 36.95 35.88 37.01 38.95 44.37 44.65 48.78 51.74 51.06 55.19
35.32 36.64 37.57 39.28 39.65 42.63 46.76 46.11 45.69 44.65 44.57 45.43 44.45 45.66 47.23 49.58 52.52 54.00 53.81 53.12 53.20 52.28 50.25 48.62 47.13 43.19 41.45 41.07 39.79 38.89 35.78 34.93 34.64 34.57 34.91 36.36 37.03 40.27 42.95 43.34 43.62 44.52 50.02
34.64 35.69 36.14 37.06 37.78 40.05 39.97 41.85 41.34 39.34 39.94 40.60 41.10 41.60 41.67 42.39 45.51 47.71 48.97 48.78 49.83 48.50 47.45 46.04 43.92 43.33 42.65 39.11 39.20 38.98 37.87 37.06 34.57 34.53 34.27 34.36 35.19 37.39 39.30 41.50 41.71 41.24 42.40
31.78 33.20 34.62 35.68 36.50 37.88 38.39 38.48 38.38 38.00 37.37 37.66 39.20 38.84 38.75 39.27 40.18 41.65 44.02 45.07 45.47 46.04 45.67 44.53 43.22 41.93 40.98 39.34 37.99 35.75 35.70 35.41 33.60 33.31 33.15 34.11 33.67 34.95 36.27 37.40 37.76 38.74 39.28
29.79 29.96 32.19 32.92 34.48 35.60 36.93 37.51 37.07 36.51 35.18 34.60 34.33 34.65 34.46 34.95 35.88 36.79 37.61 39.34 41.15 42.47 42.34 42.73 42.24 41.54 40.38 39.90 37.70 38.25 35.69 33.13 31.91 32.71 32.37 32.35 32.67 33.45 34.40 35.13 35.96 36.31 36.71
28.63 29.49 30.40 31.19 31.47 32.95 34.13 34.00 32.59 31.43 29.85 30.50 31.12 31.66 31.85 32.13 31.93 32.89 34.02 34.80 35.32 36.01 35.77 38.18 40.70 39.84 39.26 38.24 38.25 37.42 35.62 34.90 33.38 32.43 32.59 33.12 31.79 32.59 32.90 33.04 33.92 34.60 35.16
28.61 28.00 28.60 29.77 30.09 30.40 30.59 30.86 30.26 28.97 29.00 28.44 28.90 29.27 29.67 30.33 30.63 30.78 30.86 30.93 31.13 31.97 32.13 33.24 34.37 35.37 37.16 36.13 37.38 36.72 35.25 34.88 34.59 32.51 32.51 33.18 33.50 33.01 32.67 33.01 33.50 33.24 33.96
27.41 27.52 27.45 28.21 28.05 28.56 28.83 28.57 28.21 27.43 26.93 27.22 26.86 26.99 27.47 28.22 28.66 29.00 29.53 29.01 29.34 29.47 29.47 30.31 31.15 32.29 33.30 34.47 35.14 35.75 35.73 35.04 34.45 33.73 32.51 34.82 33.04 33.12 32.21 32.45 31.99 32.79 33.22

GFSSE_sfc_wetblb_042.txt.gz
Wetbulb
68.66 72.32 73.33 74.61 74.33 73.85 73.44 73.12 73.14 73.70 73.56 73.30 72.96 72.97 73.28 73.20 72.77 72.60 72.09 71.49 71.18 70.03 69.77 69.62 69.24 69.43 70.08 70.31 70.56 70.48 69.92 70.17 71.06 71.56 71.51 71.61 72.04 72.31 72.01 71.66 72.06 72.23 72.47
69.56 72.09 72.65 74.36 74.29 74.22 73.78 73.14 73.31 73.59 73.35 73.48 73.52 73.30 72.88 72.70 72.52 71.88 71.00 70.32 70.01 69.76 69.59 69.29 68.61 68.18 68.55 69.02 69.24 69.09 68.62 68.95 70.09 70.16 70.81 71.18 70.97 70.74 70.96 70.62 71.27 71.47 71.91
69.13 71.99 73.56 73.55 74.32 74.33 74.01 73.35 73.30 73.27 72.80 72.82 73.42 73.30 72.74 72.58 71.96 71.28 70.73 70.15 69.70 69.40 69.08 68.43 67.68 67.03 66.71 66.73 67.25 67.23 68.45 68.95 69.33 69.82 70.09 70.22 70.25 70.08 70.00 69.69 69.64 69.87 70.62
69.47 72.09 73.30 72.11 73.98 74.15 73.99 73.53 73.33 73.34 72.71 72.42 72.74 73.17 72.58 72.39 71.64 70.96 70.31 69.80 69.17 68.86 68.43 67.57 66.26 65.12 64.52 64.80 65.39 66.33 68.71 69.33 69.02 69.15 69.90 69.75 68.96 69.38 69.41 69.23 68.95 68.73 68.83
69.48 71.97 73.04 71.71 73.51 73.66 73.79 73.47 73.30 73.42 73.06 72.14 72.22 72.73 72.19 71.89 71.51 70.73 70.07 69.38 68.70 68.35 68.00 67.09 65.54 63.91 62.47 62.16 64.09 66.01 68.06 67.91 67.50 69.32 69.38 69.70 69.55 69.30 68.79 68.02 67.67 67.70 67.72
69.31 71.41 71.35 71.94 73.46 73.85 73.60 73.41 73.02 72.81 72.46 71.89 71.66 71.73 71.83 71.67 71.51 70.59 69.64 68.60 67.82 67.34 67.06 65.99 64.54 62.67 60.77 60.75 62.15 65.28 66.55 66.19 67.10 68.64 68.62 68.36 68.70 68.82 69.26 68.66 67.47 67.40 67.69
69.09 71.04 72.16 71.16 72.53 72.37 72.84 73.32 73.13 72.97 72.73 72.19 71.81 71.25 71.29 71.41 71.14 70.20 68.98 67.87 67.03 66.32 66.06 65.11 63.67 61.33 59.38 59.86 60.94 63.76 64.17 63.17 66.23 67.09 67.61 67.82 67.68 67.66 67.97 67.98 68.27 67.40 67.27
68.67 70.10 71.15 68.71 70.10 71.39 71.83 71.74 71.82 71.90 72.00 72.21 71.92 71.57 71.07 70.55 70.29 70.16 69.24 67.94 66.71 66.10 65.39 64.38 62.70 60.52 58.59 58.85 60.16 60.83 61.14 60.25 63.32 63.99 64.56 65.33 64.01 64.93 65.34 66.10 66.49 66.97 66.81
68.49 69.32 70.65 71.13 70.73 66.72 69.67 70.05 70.78 71.04 70.87 71.08 71.06 70.82 70.49 70.19 69.95 69.62 69.01 67.95 66.67 65.89 65.47 63.65 61.90 60.12 57.83 57.48 58.16 58.78 57.84 57.12 59.98 60.68 60.36 62.04 62.46 62.89 63.21 63.77 64.67 65.01 65.14
57.06 61.46 66.42 69.85 69.65 70.48 72.61 67.09 67.78 68.87 69.58 70.04 69.37 68.41 67.31 67.36 68.00 66.81 65.62 66.98 66.40 65.68 64.96 63.03 61.40 59.75 57.09 56.15 55.26 53.63 53.21 55.85 57.22 57.82 59.15 59.81 60.50 61.46 61.06 60.88 62.19 63.28 63.67
53.39 53.90 55.36 58.60 65.77 68.23 69.92 69.89 65.90 65.76 66.51 67.03 67.43 66.03 65.93 70.55 69.71 67.87 64.15 65.62 66.11 65.64 64.55 62.76 61.21 58.48 53.99 49.68 50.90 50.67 52.03 53.58 54.00 54.82 55.57 56.58 59.48 60.50 60.42 60.56 60.40 60.81 61.62
51.21 52.24 52.95 53.98 56.13 60.24 67.84 69.16 69.79 69.22 70.00 70.81 71.06 70.54 70.08 69.49 69.15 67.81 62.54 63.12 64.23 63.67 64.47 62.64 60.54 56.50 56.55 53.53 51.08 52.17 51.28 51.07 51.82 52.65 52.91 53.53 56.96 59.98 61.12 60.17 59.73 60.15 60.83
49.99 51.81 52.17 52.94 53.91 56.55 65.97 68.56 69.82 69.93 69.98 70.88 70.07 69.22 68.82 68.18 67.24 66.07 64.94 64.44 64.64 60.39 62.39 61.71 60.31 62.40 58.49 56.25 52.93 51.44 50.93 50.94 51.38 51.71 52.07 51.23 54.74 57.32 59.44 61.77 60.53 60.38 60.90
49.33 50.62 51.94 53.17 54.39 55.23 63.42 67.85 68.32 68.78 69.01 69.96 69.70 69.22 68.65 67.85 66.70 65.37 64.21 64.62 63.27 62.46 61.23 60.10 59.16 61.24 59.38 55.90 53.68 52.25 51.05 50.96 50.84 50.86 52.14 48.97 52.13 56.15 58.71 60.48 62.62 61.23 61.19
48.19 49.82 51.68 54.14 56.27 56.48 58.18 67.22 67.85 67.53 67.93 68.01 67.48 66.15 65.72 66.48 67.34 67.15 64.78 63.85 63.30 62.03 61.18 63.02 59.99 58.16 59.95 57.75 55.08 52.66 51.10 50.47 50.39 50.45 51.00 49.27 50.09 53.82 56.74 59.22 61.66 63.01 61.55
47.67 49.43 52.40 53.43 56.76 57.08 61.61 66.16 65.83 64.67 63.24 62.01 61.62 62.66 63.26 63.56 63.29 63.03 63.35 62.51 61.21 60.68 60.19 59.35 58.10 56.05 55.08 53.28 55.28 53.12 52.15 51.74 50.62 49.86 49.94 50.78 48.61 50.87 53.29 56.59 59.81 62.59 63.33
47.79 50.08 47.60 50.78 58.06 59.29 58.69 57.09 57.07 57.32 57.35 56.35 56.45 57.15 58.99 61.19 61.17 60.74 59.75 59.05 58.83 58.46 58.30 56.09 54.02 54.25 54.31 52.60 52.00 49.22 49.56 51.84 51.30 50.22 49.75 49.70 50.32 51.23 50.70 53.74 56.01 59.00 60.84
47.56 45.81 47.05 51.02 52.58 52.18 52.11 51.86 51.00 51.11 51.04 51.16 51.93 54.01 55.13 56.20 57.24 57.45 56.23 55.75 56.10 54.73 54.32 53.34 51.82 51.78 51.06 49.69 48.83 48.54 48.58 51.85 51.45 50.79 50.36 49.89 49.92 49.29 51.56 51.12 52.98 54.99 57.00
46.36 45.09 46.18 48.46 49.39 49.17 48.70 47.86 47.28 48.09 48.99 50.27 51.18 49.99 51.32 53.67 53.41 53.79 53.69 53.12 53.13 53.00 52.15 51.91 49.97 51.62 50.72 50.87 48.04 48.79 49.17 47.23 48.41 50.81 50.94 50.08 49.43 48.64 48.94 50.17 49.35 50.40 52.46
46.31 46.33 46.32 46.13 47.51 47.46 47.21 47.13 47.85 47.32 47.22 47.24 47.15 47.77 49.09 49.63 52.83 53.24 52.24 50.96 52.08 52.25 51.12 51.98 50.89 48.88 47.67 46.62 45.74 46.69 48.49 47.25 46.56 49.27 50.49 48.69 48.46 47.77 47.97 48.12 49.24 50.08 50.01
44.72 46.08 46.08 46.22 47.42 49.69 50.76 49.94 47.68 45.09 43.91 42.97 42.89 43.88 45.07 45.89 46.86 48.44 48.41 49.19 50.28 49.39 49.22 49.53 50.56 49.93 49.41 48.37 49.73 51.54 51.62 50.17 48.72 48.77 49.34 49.19 48.29 46.87 47.44 47.88 48.00 48.45 49.28
41.97 43.36 44.40 45.06 46.19 47.05 47.53 46.69 45.17 42.44 40.85 40.74 40.52 39.97 40.58 41.28 42.24 42.95 44.17 44.01 45.05 45.71 45.30 46.02 47.00 48.53 48.82 47.99 46.11 48.26 47.85 50.08 48.14 49.24 49.84 47.57 47.03 47.99 48.11 46.72 46.67 46.82 47.38
39.89 40.81 41.52 42.63 43.56 44.91 44.62 43.51 42.05 41.76 41.10 39.46 38.41 37.73 37.93 38.70 39.03 39.19 39.47 39.71 39.98 41.35 40.80 41.67 43.47 44.26 44.47 46.03 45.79 44.38 43.69 43.58 43.55 48.48 48.17 47.18 47.69 46.86 47.31 48.19 47.79 47.57 47.26
37.76 39.06 39.93 40.84 41.06 41.68 42.76 42.81 42.22 40.00 36.51 36.62 36.80 37.16 36.85 37.58 37.28 37.83 37.89 38.05 37.96 37.98 37.60 37.68 38.32 39.30 40.82 39.40 44.33 43.71 44.60 42.40 39.65 39.88 45.58 46.17 45.71 45.43 46.49 46.89 47.06 47.16 47.45
37.04 37.70 38.41 38.39 38.26 38.96 39.53 39.64 38.62 36.83 36.51 36.86 36.69 36.05 36.09 36.05 36.36 36.25 36.65 36.56 36.32 36.57 36.43 36.46 36.51 36.65 37.10 36.35 36.41 37.17 38.89 40.82 42.43 38.14 36.67 39.11 41.01 41.80 44.00 44.90 44.65 45.68 46.17
35.55 36.21 36.75 36.12 35.71 36.96 37.43 37.74 37.31 36.31 35.91 35.61 35.41 35.02 34.95 35.17 35.09 35.10 35.06 35.17 35.15 34.95 34.90 35.16 35.60 35.15 35.18 35.45 35.60 35.84 34.82 34.01 33.83 33.81 32.92 33.96 34.89 37.72 39.56 41.15 42.40 44.03 45.43

GFSSE_sfc_wetblb_045.txt.gz
Wetbulb
69.84 72.87 74.06 74.32 73.84 73.55 73.20 73.21 73.39 73.78 73.32 72.49 72.43 73.10 73.25 72.61 72.07 72.01 71.27 70.68 70.19 69.89 69.77 69.33 69.42 70.07 69.93 70.45 70.40 70.06 70.10 70.57 70.80 71.13 71.51 71.43 71.68 71.86 71.65 71.61 71.72 71.65 72.67
70.80 73.05 73.14 74.23 73.96 73.97 73.16 73.03 73.19 73.57 73.56 73.56 73.53 73.34 73.01 72.64 71.96 71.09 70.59 70.32 69.93 69.45 69.23 68.97 68.45 68.30 68.68 68.99 68.94 69.13 69.57 69.75 70.14 70.40 71.29 71.44 70.93 70.51 70.43 70.18 70.94 71.12 72.03
70.45 73.12 73.56 73.64 73.73 73.88 73.67 73.16 73.29 73.29 73.00 73.26 73.11 73.01 72.60 72.22 71.41 70.89 70.31 69.66 69.54 69.10 68.54 67.66 66.98 66.49 66.49 66.68 67.25 68.83 69.60 69.07 69.70 69.94 70.60 69.31 69.13 70.07 69.93 69.48 69.49 69.80 70.71
70.38 72.75 73.29 72.59 73.61 73.98 73.67 73.15 73.34 73.16 72.68 72.99 72.81 72.62 72.27 71.89 71.22 70.66 70.13 69.46 69.17 68.75 68.19 67.06 65.92 64.48 63.92 65.29 66.08 68.39 69.29 69.34 69.10 69.72 68.48 68.55 68.34 69.44 69.28 68.96 68.59 68.39 68.96
70.20 72.50 73.23 72.31 73.22 73.68 73.59 73.29 73.33 73.26 72.85 72.35 72.36 72.12 72.21 71.59 70.98 70.35 69.67 68.91 68.34 68.06 67.48 66.59 65.15 63.23 62.26 63.38 65.30 67.33 68.18 68.07 68.17 68.46 67.89 68.30 68.80 69.47 69.18 68.66 67.74 67.59 68.20
69.81 72.09 71.39 72.16 73.20 73.33 73.34 73.25 72.79 72.54 72.29 72.03 72.02 72.16 71.72 71.66 70.94 70.03 69.04 68.25 67.62 67.13 66.66 65.79 64.05 61.92 61.35 61.80 63.94 65.82 66.12 66.30 66.27 67.15 67.22 67.18 67.65 69.00 69.19 69.02 67.54 67.43 68.00
69.07 71.47 72.74 71.69 72.69 72.85 72.57 71.89 71.80 72.21 71.96 71.87 71.54 71.20 71.23 71.05 70.25 69.67 68.52 67.68 67.14 66.47 65.89 64.82 63.01 60.85 60.38 61.41 62.18 63.49 63.40 63.23 64.95 65.59 66.01 66.26 65.54 66.72 67.52 67.78 67.85 67.82 67.37
69.19 70.66 71.73 69.07 69.41 71.63 71.96 71.65 71.62 72.02 71.78 70.99 71.11 71.11 70.62 70.69 70.21 69.52 68.54 67.46 66.88 66.36 65.31 64.01 62.30 60.07 59.18 59.73 60.61 60.37 60.05 60.41 61.94 62.31 63.00 63.69 64.08 64.51 65.14 65.45 66.28 66.64 66.68
69.32 69.91 70.45 71.08 70.46 67.22 69.05 70.12 70.64 71.08 70.78 70.69 70.78 70.58 70.22 70.09 69.98 69.66 69.03 67.64 66.68 66.27 64.77 63.29 61.79 59.68 57.91 57.82 57.01 56.20 56.72 58.12 58.21 58.72 59.05 60.73 61.91 63.02 62.76 62.69 64.15 65.02 65.18
61.05 63.82 66.90 68.78 69.96 70.49 72.21 67.43 67.49 69.08 69.57 70.00 69.69 68.78 67.70 68.04 67.75 66.68 65.94 67.23 66.41 65.81 64.29 62.87 61.41 59.60 56.09 54.73 54.42 53.09 54.60 56.86 55.58 56.58 57.85 56.99 60.65 61.88 62.22 62.03 61.76 62.18 63.32
56.21 57.08 58.56 61.02 66.45 67.74 69.53 68.39 66.12 65.80 66.80 67.19 67.79 66.16 65.74 70.06 69.05 66.77 64.51 66.06 66.31 65.61 64.00 62.97 61.26 58.51 53.80 52.02 52.25 52.82 54.17 52.65 53.32 54.16 54.93 55.39 58.22 61.29 62.31 61.41 61.04 61.29 61.82
53.55 54.63 55.28 56.55 58.59 63.81 67.45 69.44 70.80 70.83 70.46 70.01 70.50 70.13 69.91 69.49 69.26 67.91 63.35 63.27 64.31 64.07 64.13 62.85 60.61 58.35 58.73 56.35 53.04 54.40 52.17 52.38 52.73 53.27 52.49 53.87 56.35 58.88 60.41 62.22 61.42 61.12 61.90
52.86 54.19 54.58 55.50 56.34 58.08 65.32 68.32 69.93 70.40 69.69 69.83 69.92 69.77 69.28 69.46 68.69 68.42 66.47 64.64 64.44 60.74 64.03 62.67 61.82 62.96 60.80 58.39 55.60 53.73 52.91 53.27 52.59 52.71 51.74 51.93 54.65 57.71 59.75 60.99 62.74 61.90 61.73
52.18 53.12 54.84 56.35 57.38 57.38 61.73 67.39 68.83 68.84 69.71 69.15 69.06 68.94 68.70 68.41 68.04 66.45 65.62 65.42 65.86 63.72 63.65 62.58 62.05 61.59 60.78 58.17 56.25 54.90 53.41 52.99 52.03 52.64 51.52 50.35 51.92 55.10 57.63 59.73 61.58 63.75 61.76
50.91 53.06 55.33 57.74 58.87 58.75 58.77 66.81 68.06 66.53 66.79 65.98 65.48 66.02 67.05 66.50 66.50 66.43 65.34 64.35 64.56 63.71 62.14 63.20 61.58 59.31 59.65 58.84 57.36 55.45 54.66 53.99 53.20 52.59 52.91 49.85 49.84 51.86 54.32 56.91 59.85 62.87 63.67
51.13 53.26 54.09 55.25 59.59 57.90 62.90 63.98 62.62 62.52 61.23 61.04 60.81 62.52 64.10 64.29 63.30 63.13 62.42 60.82 59.85 59.89 59.52 59.12 57.92 57.80 56.52 54.85 56.18 55.09 54.65 54.67 54.31 53.43 52.78 53.16 50.15 49.56 51.91 54.17 56.62 59.04 61.61
52.08 50.78 50.42 54.36 58.11 58.05 56.02 55.93 56.50 56.97 56.71 55.75 57.23 57.96 58.99 61.06 61.90 60.57 60.16 59.66 58.93 58.55 56.97 56.81 55.27 54.58 55.62 54.60 55.64 55.42 54.17 54.28 54.21 53.70 53.32 53.10 53.18 51.75 49.90 51.84 54.01 55.86 58.06
50.18 48.48 50.11 52.57 52.98 51.02 50.29 50.73 50.93 52.35 53.24 53.20 54.01 54.91 56.18 56.89 57.72 56.46 55.50 54.53 54.62 54.68 54.30 53.35 52.23 52.33 51.75 52.25 53.42 54.28 52.42 51.95 54.62 53.94 53.67 53.07 53.18 51.76 53.17 50.46 50.80 52.08 53.70
47.90 48.09 48.88 49.97 49.33 48.31 47.93 48.18 48.64 49.29 49.76 50.97 52.03 53.19 54.20 55.46 55.83 55.15 54.70 54.47 53.45 53.09 53.23 52.97 52.63 52.24 52.60 52.69 51.01 51.54 51.92 50.76 50.35 50.30 52.26 53.08 51.94 51.06 50.22 51.65 49.70 50.10 51.65
47.74 48.43 48.23 48.79 48.07 48.13 48.51 47.76 47.07 46.65 47.23 48.68 48.53 48.77 49.86 50.71 52.26 53.15 53.02 53.22 53.08 52.56 51.81 52.86 52.44 52.50 50.93 50.26 49.74 50.50 52.35 52.88 51.06 50.60 51.22 49.57 50.08 49.13 49.29 49.59 49.93 49.67 50.69
47.74 47.47 48.20 48.68 48.78 50.32 50.31 49.56 48.60 46.14 45.67 44.43 44.25 45.13 45.56 46.43 47.86 48.35 48.01 48.64 49.32 47.99 47.87 48.56 50.16 50.90 49.74 48.92 50.71 49.99 52.66 52.14 49.80 50.04 51.37 50.47 49.22 49.25 49.96 48.36 48.15 48.22 48.40
47.80 48.05 48.41 49.18 50.81 51.85 50.86 48.86 46.87 44.52 43.26 42.42 41.93 41.66 42.04 42.59 42.74 43.32 43.90 43.67 44.94 44.22 43.70 44.59 45.86 47.31 47.24 47.46 44.33 47.28 47.25 48.75 48.05 49.59 49.91 48.89 48.75 48.49 48.21 48.87 48.98 48.57 48.79
45.92 46.64 47.27 48.19 48.55 48.30 47.41 45.57 44.08 43.70 42.77 40.86 39.80 39.16 39.83 40.65 41.01 40.76 40.88 41.03 40.79 40.92 39.38 39.90 40.77 40.90 41.51 43.99 43.91 43.53 41.32 40.79 41.90 48.03 47.82 47.46 46.93 46.11 45.89 46.43 47.15 47.24 47.46
42.82 44.22 45.53 45.59 45.97 46.50 47.38 46.11 45.28 42.13 38.55 38.51 38.00 38.45 38.35 39.34 38.72 39.36 39.44 39.53 39.27 39.09 38.62 38.46 38.94 38.93 39.01 36.75 40.60 40.02 42.70 41.43 38.03 36.85 42.23 41.93 40.28 40.51 40.83 44.33 41.46 43.21 45.74
41.60 41.92 42.06 42.00 41.97 42.70 43.17 42.98 41.61 39.34 39.07 38.34 37.63 37.33 37.24 37.79 38.06 37.51 37.92 37.86 37.51 37.56 37.74 37.54 37.27 37.23 37.48 36.43 36.48 36.46 37.07 37.11 40.27 33.38 31.58 33.69 37.23 38.82 40.80 39.31 40.27 42.70 43.85
38.90 39.81 40.11 39.60 39.23 40.34 40.97 40.98 39.56 38.39 37.58 37.44 37.13 36.57 36.43 36.36 36.07 36.39 36.49 36.16 35.90 35.82 35.85 36.19 36.67 35.82 35.59 35.68 35.33 35.52 34.29 32.62 32.22 31.88 30.83 31.63 32.13 34.68 36.87 37.53 41.02 40.55 42.91

GFSSE_sfc_wetblb_048.txt.gz
Wetbulb
68.51 71.96 73.80 74.41 73.75 73.41 73.34 73.32 73.72 73.42 73.33 73.00 73.29 73.10 72.53 72.08 71.48 71.24 71.06 70.34 69.85 69.79 69.75 69.51 69.59 69.64 70.02 70.15 70.21 70.30 70.55 70.38 70.85 71.56 71.76 71.26 71.15 70.99 71.19 71.50 71.64 71.34 72.58
70.24 72.10 73.20 74.13 74.29 73.92 73.78 73.65 73.81 73.98 73.78 73.61 73.30 72.85 72.63 72.01 71.22 70.80 70.33 69.87 69.37 69.04 68.87 68.44 68.09 68.14 68.50 68.78 69.66 70.01 69.66 70.17 70.48 70.45 71.21 71.06 71.04 70.35 70.15 69.83 70.95 70.75 72.11
70.62 72.26 73.14 73.45 74.03 73.88 73.68 73.45 73.54 73.78 73.92 73.11 73.23 72.92 72.38 71.66 71.01 70.43 69.94 69.49 69.04 68.69 68.18 67.25 66.22 65.83 66.70 67.11 69.04 69.78 69.85 69.76 70.24 70.07 70.07 67.63 67.74 70.02 69.78 69.08 69.14 69.95 70.73
71.04 71.86 72.53 72.27 72.87 73.76 73.22 73.52 73.30 73.22 73.05 73.08 72.72 72.48 72.02 71.45 70.82 70.29 69.64 69.10 68.46 68.06 67.80 66.76 65.19 64.19 64.73 66.34 67.94 68.86 69.37 69.39 69.57 69.13 66.54 67.85 67.97 69.71 69.59 68.76 68.38 68.58 69.20
69.38 71.59 72.27 72.06 72.73 72.59 73.28 73.38 73.18 73.26 73.15 73.06 72.48 72.23 71.89 71.25 70.56 69.69 68.98 68.42 67.75 67.20 67.01 65.78 63.98 63.05 62.94 64.65 66.83 67.24 67.58 67.65 67.63 66.43 64.78 66.06 66.22 68.98 69.86 69.19 67.69 68.01 68.39
68.74 71.88 70.92 72.23 72.96 72.61 73.05 72.67 72.68 72.31 72.27 72.55 72.17 72.13 71.79 71.22 70.31 69.21 68.50 67.75 67.39 66.52 65.94 64.59 62.78 61.95 62.63 63.48 64.66 65.09 65.14 65.20 66.28 63.30 64.58 64.59 63.75 67.79 68.50 68.43 68.44 68.01 68.06
66.53 71.03 71.17 71.55 72.20 72.09 72.35 72.41 72.04 72.06 72.14 72.23 71.91 71.69 71.10 70.80 69.98 68.87 68.22 67.57 67.20 66.16 65.16 63.77 61.72 60.82 61.23 61.73 61.84 62.07 61.85 61.75 59.37 60.01 60.97 60.53 61.51 65.55 66.02 66.41 67.12 67.32 67.13
67.33 69.62 70.88 68.81 69.61 71.22 71.51 71.43 71.20 71.15 70.87 71.29 71.63 71.47 70.88 70.22 70.06 68.98 68.13 67.50 67.16 65.99 64.83 63.30 61.03 59.79 59.39 59.17 58.97 58.78 58.97 60.30 57.14 55.70 57.92 58.22 63.45 63.64 63.67 63.78 64.96 65.53 65.64
66.90 67.99 68.38 69.87 68.83 67.29 68.41 69.86 70.32 70.58 70.69 70.72 70.68 70.45 70.09 69.71 69.68 69.28 68.27 67.49 66.97 65.77 64.65 63.14 61.25 58.38 57.34 56.89 56.09 56.05 57.66 58.52 52.11 54.13 56.09 56.41 62.75 62.95 63.08 62.66 62.43 63.25 64.04
56.72 58.16 60.32 65.57 67.75 68.97 69.85 67.13 67.99 68.92 69.19 69.44 69.13 68.29 67.23 67.43 67.29 66.66 65.72 66.91 66.79 65.55 64.41 63.14 61.66 57.93 55.24 54.56 54.26 55.74 56.24 55.91 49.32 50.92 51.08 54.19 60.37 62.66 63.11 62.10 61.70 62.09 62.39
53.24 52.78 54.28 56.50 63.61 66.17 68.05 67.71 65.61 66.45 67.01 67.17 66.79 65.23 64.16 67.59 65.85 64.28 64.34 66.00 66.60 65.37 64.29 63.07 61.31 58.02 55.04 55.00 54.60 54.35 54.01 47.14 47.83 48.35 48.78 56.37 58.59 60.49 61.87 63.01 61.90 61.64 62.46
48.76 50.16 51.42 52.13 53.82 59.65 65.86 67.45 69.05 68.61 67.89 67.71 68.16 66.99 67.72 67.03 66.80 64.73 62.10 63.54 64.53 64.20 64.30 62.70 60.61 59.48 58.39 51.01 48.32 51.60 46.65 46.58 46.77 46.81 48.22 54.79 57.02 59.63 60.85 61.54 63.25 62.37 62.44
47.30 50.11 51.51 52.36 52.83 53.57 62.57 66.26 66.95 67.95 66.92 66.52 67.53 66.67 66.13 65.85 64.34 64.06 62.05 62.68 61.70 60.64 61.57 60.67 59.57 58.75 55.59 53.08 51.39 48.89 47.95 46.31 45.37 46.00 50.30 53.22 54.91 57.34 59.34 60.67 62.09 63.79 62.21
48.04 50.02 52.32 54.07 54.74 53.52 54.58 65.59 66.49 66.77 66.16 65.41 65.61 66.00 65.54 64.86 64.60 63.55 62.98 63.83 63.25 62.18 60.99 60.44 58.45 57.85 56.37 54.15 52.45 51.06 49.42 47.96 46.55 46.05 47.54 51.88 52.00 54.57 56.55 58.54 60.74 63.16 63.93
47.57 50.77 51.85 53.97 55.71 55.65 54.23 65.51 64.78 63.82 63.15 62.74 62.71 63.47 63.89 63.30 63.27 63.27 63.15 62.19 61.31 61.35 60.25 58.95 57.60 56.81 54.10 54.46 53.76 51.93 51.14 50.01 48.84 47.87 46.57 50.79 51.47 52.64 54.51 56.00 58.01 59.61 62.30
49.53 49.64 50.78 55.15 57.26 57.91 59.12 60.43 59.44 58.41 58.30 58.54 58.05 58.97 61.33 62.16 61.01 60.61 59.96 59.33 58.63 58.86 58.06 56.57 55.55 55.47 54.28 53.49 53.53 52.34 51.54 51.01 50.65 49.36 48.09 47.35 52.67 51.20 52.44 55.16 56.70 57.68 59.18
48.25 49.77 51.63 54.11 54.71 54.06 54.66 55.29 55.10 55.12 55.57 55.31 55.52 56.19 57.26 57.36 56.23 55.82 55.41 54.64 55.25 55.80 55.49 54.77 54.15 53.65 53.26 53.16 53.67 52.66 50.98 50.49 50.61 50.23 49.29 48.57 49.04 51.47 52.36 53.63 53.83 54.85 55.55
47.05 48.27 50.92 51.92 50.40 50.17 51.03 51.78 52.12 52.40 52.66 53.12 53.88 53.61 54.28 54.56 54.35 53.42 52.53 52.79 53.53 53.84 53.88 52.62 52.24 52.42 51.99 50.92 49.61 49.73 48.92 49.05 49.20 48.28 48.94 48.89 47.88 47.01 49.21 52.46 52.14 52.82 53.90
47.30 48.65 49.16 49.32 48.18 48.20 48.66 48.75 48.96 49.42 49.64 49.72 49.98 49.28 50.28 52.70 53.16 52.02 51.14 50.89 51.06 50.45 50.75 50.27 48.65 48.34 46.38 45.94 45.88 46.12 47.75 47.61 46.49 47.82 47.86 46.33 45.65 44.85 44.74 49.95 51.35 51.06 51.87
48.20 48.37 48.40 48.03 47.65 47.59 47.19 46.71 46.54 46.01 45.45 45.50 44.54 45.00 46.27 47.53 48.18 47.25 47.32 46.60 46.79 45.81 45.07 45.07 47.69 47.50 44.38 43.13 45.33 46.67 47.13 47.46 45.79 45.02 44.94 46.24 44.56 45.39 45.07 44.31 43.94 44.94 50.87
47.09 47.90 47.65 47.50 47.86 48.72 47.58 46.36 44.54 42.06 40.51 40.02 40.43 40.91 41.08 42.25 43.70 43.23 43.03 43.67 42.27 41.17 40.74 41.93 43.39 43.27 42.42 42.70 42.06 42.85 45.66 44.03 43.37 44.05 44.24 43.08 44.22 44.93 44.43 44.78 44.42 44.42 45.36
46.24 46.71 47.50 48.17 49.01 49.33 47.34 45.13 41.26 38.97 38.26 37.65 37.70 37.83 38.39 38.74 38.85 39.19 37.91 37.66 37.57 36.66 36.37 36.24 36.19 39.76 38.78 38.56 38.38 39.97 39.01 42.32 41.13 43.83 42.93 42.14 39.88 40.73 40.87 40.15 42.37 38.98 41.20
45.23 45.97 47.06 47.50 45.82 43.89 42.24 41.34 39.87 38.59 36.68 35.38 34.51 34.88 36.32 36.91 36.87 36.87 36.44 36.14 35.81 35.48 34.22 33.81 33.62 33.44 32.17 34.51 34.55 37.01 34.61 33.64 35.73 39.36 36.77 35.98 34.96 34.98 35.18 37.25 37.40 37.83 40.02
41.57 42.78 43.71 43.65 42.92 42.57 41.65 39.62 38.06 36.04 33.48 33.06 33.55 33.89 34.61 35.09 34.72 35.24 35.15 34.61 34.10 33.79 32.88 32.71 33.87 32.33 32.13 30.49 32.45 34.91 32.12 31.11 32.01 30.39 31.59 32.53 34.03 33.96 33.79 33.83 34.71 36.18 38.91
38.92 38.69 38.79 38.98 39.14 39.36 39.07 38.12 36.44 34.41 33.91 33.91 33.33 32.57 32.66 32.79 33.19 33.45 33.18 32.56 32.31 32.70 31.54 31.42 30.58 30.43 31.04 29.47 29.53 29.69 29.70 29.28 28.98 25.81 23.51 27.42 29.97 31.18 32.20 33.18 33.36 34.79 37.50
36.03 35.98 35.64 35.52 36.05 37.15 36.84 35.95 34.36 33.57 33.34 33.06 32.22 31.20 31.06 31.26 31.40 31.81 32.22 30.67 30.66 30.45 30.39 30.20 30.04 29.41 29.18 29.13 28.86 29.08 28.43 26.96 25.98 25.14 23.02 24.64 24.65 27.73 30.74 30.91 32.25 33.14 35.20